FW6434 Weather Reports


Display with metric or nautical units.
time (UTC)temp
F
wind
direction
speed
MPH
gust
MPH
rain 1hr
in
rain 24hr
in
rain mn
in
humidity
%
barometer
mb
20220118070124 30 357 5.0 17.0 0.00 0.04 0.00 94 1028.8
20220118070020 30 348 7.0 17.0 0.00 0.04 0.00 94 1028.6
20220118065912 30 5 6.0 18.0 0.00 0.04 0.00 93 1028.5
20220118065756 30 300 9.0 18.0 0.00 0.04 0.00 93 1028.9
20220118065708 30 18 5.0 18.0 0.00 0.04 0.00 93 1028.7
20220118065652 30 300 12.0 18.0 0.00 0.04 0.00 93 1028.5
20220118065543 30 260 8.0 18.0 0.00 0.04 0.00 93 1028.5
20220118065439 30 300 12.0 18.0 0.00 0.04 0.00 93 1028.6
20220118065331 30 317 10.0 18.0 0.00 0.04 0.00 93 1028.4
20220118065227 30 282 9.0 21.0 0.00 0.04 0.00 94 1028.4
20220118065158 30 327 8.0 21.0 0.00 0.04 0.00 94 1028.4
20220118065121 30 318 10.0 21.0 0.00 0.04 0.00 93 1028.4
20220118065013 30 17 12.0 21.0 0.00 0.04 0.00 93 1028.4
20220118064908 30 286 5.0 21.0 0.00 0.04 0.00 93 1028.3
20220118064802 30 284 6.0 21.0 0.00 0.04 0.00 93 1028.4
20220118064653 30 324 8.0 21.0 0.00 0.04 0.00 93 1028.4
20220118064550 30 286 10.0 21.0 0.00 0.04 0.00 93 1028.4
20220118064442 30 319 9.0 21.0 0.00 0.04 0.00 93 1028.4
20220118064338 30 271 10.0 21.0 0.00 0.04 0.00 93 1028.4
20220118064221 30 325 13.0 21.0 0.00 0.04 0.00 93 1028.3
20220118064141 30 309 8.0 21.0 0.00 0.04 0.00 93 1028.3
20220118064114 30 312 9.0 16.0 0.00 0.04 0.00 93 1028.3
20220118063959 30 336 3.0 16.0 0.00 0.04 0.00 93 1028.6
20220118063852 30 344 3.0 16.0 0.00 0.04 0.00 93 1028.5
20220118063746 30 315 9.0 16.0 0.00 0.04 0.00 93 1028.4
20220118063638 30 278 5.0 16.0 0.00 0.04 0.00 93 1028.1
20220118063534 30 329 14.0 16.0 0.00 0.04 0.00 93 1028.3
20220118063428 30 294 6.0 15.0 0.00 0.04 0.00 93 1028.1
20220118063321 30 288 10.0 18.0 0.00 0.04 0.00 93 1028.0
20220118063214 30 298 9.0 18.0 0.00 0.04 0.00 93 1028.2
20220118063126 30 324 5.0 18.0 0.00 0.04 0.00 93 1028.2
20220118063111 30 40 9.0 18.0 0.00 0.04 0.00 93 1028.2
20220118063004 30 311 11.0 18.0 0.00 0.04 0.00 93 1028.1
20220118062858 30 339 7.0 18.0 0.00 0.04 0.00 93 1028.2
20220118062752 30 319 7.0 18.0 0.00 0.04 0.00 93 1028.2
20220118062619 30 308 11.0 18.0 0.00 0.04 0.00 93 1028.3
20220118062540 30 296 11.0 18.0 0.00 0.04 0.00 93 1028.1
20220118062424 30 350 6.0 18.0 0.00 0.04 0.00 93 1027.8
20220118062317 30 325 8.0 18.0 0.00 0.04 0.00 93 1028.3
20220118062212 30 304 12.0 18.0 0.00 0.04 0.00 93 1028.1
20220118062111 30 4 6.0 17.0 0.00 0.04 0.00 93 1028.2
20220118062106 30 4 6.0 17.0 0.00 0.04 0.00 93 1028.2
20220118061958 30 319 6.0 17.0 0.00 0.04 0.00 93 1028.2
20220118061853 30 297 9.0 17.0 0.00 0.04 0.00 93 1028.2
20220118061748 30 296 8.0 17.0 0.00 0.04 0.00 93 1028.1
20220118061642 30 252 6.0 17.0 0.00 0.04 0.00 93 1028.1
20220118061603 30 311 10.0 17.0 0.00 0.04 0.00 93 1028.1
20220118061534 30 325 13.0 17.0 0.00 0.04 0.00 93 1028.0
20220118061430 30 345 7.0 17.0 0.00 0.04 0.00 93 1028.1
20220118061322 30 302 11.0 17.0 0.00 0.04 0.00 93 1028.0
20220118061217 30 296 5.0 17.0 0.00 0.04 0.00 93 1028.1
20220118061110 30 325 10.0 17.0 0.00 0.04 0.00 93 1028.1
20220118061055 30 340 8.0 17.0 0.00 0.04 0.00 93 1028.1
20220118061004 30 305 8.0 17.0 0.00 0.04 0.00 93 1027.9
20220118060902 30 296 10.0 17.0 0.00 0.04 0.00 93 1028.0
20220118060753 30 284 13.0 19.0 0.00 0.04 0.00 93 1028.0
20220118060645 30 296 8.0 19.0 0.00 0.04 0.00 93 1027.9
20220118060547 30 2 5.0 19.0 0.00 0.04 0.00 93 1027.9
20220118060540 30 2 5.0 19.0 0.00 0.04 0.00 93 1028.1
20220118060435 30 322 5.0 21.0 0.00 0.04 0.00 93 1028.0
20220118060329 30 328 8.0 21.0 0.00 0.04 0.00 93 1027.9
20220118060222 30 347 5.0 21.0 0.00 0.04 0.00 93 1027.9
20220118060038 30 320 11.0 21.0 0.00 0.04 0.00 93 1027.8
20220118055959 30 339 13.0 21.0 0.00 0.04 0.00 93 1027.8
20220118055852 30 270 14.0 21.0 0.00 0.04 0.00 93 1027.9
20220118055748 30 326 6.0 21.0 0.00 0.04 0.00 93 1028.0
20220118055643 30 278 14.0 21.0 0.00 0.04 0.00 93 1028.0
20220118055537 30 301 16.0 21.0 0.00 0.04 0.00 93 1027.8
20220118055430 30 309 9.0 17.0 0.00 0.04 0.00 93 1028.1
20220118055324 30 322 9.0 18.0 0.00 0.04 0.00 93 1027.8
20220118055219 30 287 8.0 18.0 0.00 0.04 0.00 93 1027.8
20220118055100 30 312 13.0 18.0 0.00 0.04 0.00 93 1027.9
20220118055024 30 281 9.0 18.0 0.00 0.04 0.00 93 1028.1
20220118054955 30 306 12.0 18.0 0.00 0.04 0.00 93 1028.1
20220118054849 30 0 8.0 18.0 0.00 0.04 0.00 93 1028.1
20220118054743 30 323 14.0 18.0 0.00 0.04 0.00 93 1027.9
20220118054626 30 9 4.0 18.0 0.00 0.04 0.00 93 1027.9
20220118054518 30 326 8.0 19.0 0.00 0.04 0.00 93 1027.9
20220118054412 30 323 15.0 19.0 0.00 0.04 0.00 93 1027.9
20220118054307 30 318 7.0 19.0 0.00 0.04 0.00 93 1027.9
20220118054153 30 312 7.0 19.0 0.00 0.04 0.00 93 1027.8
20220118054045 30 313 14.0 19.0 0.00 0.04 0.00 93 1027.7
20220118054005 30 313 14.0 19.0 0.00 0.04 0.00 93 1027.7
20220118053939 30 304 11.0 19.0 0.00 0.04 0.00 93 1027.8
20220118053727 30 296 12.0 19.0 0.00 0.04 0.00 93 1027.8
20220118053622 30 329 8.0 19.0 0.00 0.04 0.00 93 1027.7
20220118053515 30 356 13.0 17.0 0.00 0.04 0.00 93 1027.6
20220118053459 30 335 4.0 17.0 0.00 0.04 0.00 93 1027.6
20220118053409 30 308 10.0 17.0 0.00 0.04 0.00 93 1027.6
20220118053304 30 316 7.0 17.0 0.00 0.04 0.00 93 1027.8
20220118053157 30 355 8.0 17.0 0.00 0.04 0.00 93 1027.7
20220118053051 30 328 11.0 17.0 0.00 0.04 0.00 93 1027.6
20220118052945 30 336 4.0 17.0 0.00 0.04 0.00 93 1027.6
20220118052840 30 264 7.0 17.0 0.00 0.04 0.00 93 1027.6
20220118052732 30 313 12.0 17.0 0.00 0.04 0.00 93 1027.2
20220118052617 30 8 10.0 17.0 0.00 0.04 0.00 93 1027.5
20220118052510 30 303 13.0 16.0 0.00 0.04 0.00 93 1027.4
20220118052442 30 342 10.0 16.0 0.00 0.04 0.00 93 1027.4
20220118052352 30 306 9.0 22.0 0.00 0.04 0.00 93 1027.5
20220118052246 30 300 9.0 22.0 0.00 0.04 0.00 93 1027.4
20220118052139 30 324 9.0 22.0 0.00 0.04 0.00 93 1027.5
20220118052035 30 298 6.0 22.0 0.00 0.04 0.00 93 1027.1
20220118051919 30 131 10.0 22.0 0.00 0.04 0.00 93 1027.5
20220118051800 30 294 11.0 22.0 0.00 0.04 0.00 93 1027.5
20220118051653 30 282 10.0 22.0 0.00 0.04 0.00 93 1027.5
20220118051547 30 291 10.0 25.0 0.00 0.04 0.00 93 1027.7
20220118051442 30 318 16.0 25.0 0.00 0.04 0.00 93 1027.5
20220118051414 30 304 18.0 25.0 0.00 0.04 0.00 93 1027.7
20220118051338 30 303 17.0 25.0 0.00 0.04 0.00 93 1027.6
20220118051230 30 297 8.0 25.0 0.00 0.04 0.00 93 1027.7
20220118051125 30 322 11.0 25.0 0.00 0.04 0.00 93 1027.5
20220118051009 30 357 14.0 25.0 0.00 0.04 0.00 93 1027.6
20220118050908 30 274 7.0 25.0 0.00 0.04 0.00 93 1027.6
20220118050902 30 274 7.0 25.0 0.00 0.04 0.00 93 1027.6
20220118050756 30 347 14.0 25.0 0.00 0.04 0.00 93 1027.5
20220118050650 30 300 15.0 25.0 0.00 0.04 0.00 93 1027.5
20220118050544 30 306 11.0 21.0 0.00 0.04 0.00 93 1027.4
20220118050438 30 353 6.0 22.0 0.00 0.04 0.00 93 1027.5
20220118050401 30 290 15.0 22.0 0.00 0.04 0.00 93 1027.5
20220118050320 30 308 9.0 22.0 0.00 0.04 0.00 93 1027.4
20220118050215 30 334 10.0 22.0 0.00 0.04 0.00 93 1027.5
20220118050108 30 317 11.0 22.0 0.00 0.04 0.00 93 1027.4
20220118050002 30 86 8.0 22.0 0.00 0.04 0.00 93 1027.4
20220118045855 29 328 13.0 22.0 0.00 0.04 0.00 93 1027.5
20220118045749 29 308 5.0 22.0 0.00 0.04 0.00 93 1027.5
20220118045644 29 334 11.0 22.0 0.00 0.04 0.00 93 1027.7
20220118045538 29 325 11.0 22.0 0.00 0.04 0.00 93 1027.4
20220118045433 29 313 10.0 22.0 0.00 0.04 0.00 94 1027.6
20220118045344 29 322 17.0 22.0 0.00 0.04 0.00 94 1027.5
20220118045326 29 316 8.0 22.0 0.00 0.04 0.00 94 1027.5
20220118045220 29 295 7.0 22.0 0.00 0.04 0.00 94 1027.4
20220118045113 29 328 17.0 22.0 0.00 0.04 0.00 94 1027.4
20220118045008 29 319 9.0 17.0 0.00 0.04 0.00 94 1027.5
20220118044900 29 304 10.0 17.0 0.00 0.04 0.00 94 1027.5
20220118044835 29 304 10.0 17.0 0.00 0.04 0.00 94 1027.4
20220118044756 29 315 7.0 17.0 0.00 0.04 0.00 94 1027.4
20220118044650 29 293 14.0 17.0 0.00 0.04 0.00 94 1027.6
20220118044545 29 305 6.0 16.0 0.00 0.04 0.00 94 1027.6
20220118044441 29 265 11.0 17.0 0.00 0.04 0.00 94 1027.6
20220118044331 29 305 11.0 17.0 0.00 0.04 0.00 94 1027.5
20220118044227 29 257 11.0 17.0 0.00 0.04 0.00 94 1027.3
20220118044124 29 279 9.0 17.0 0.00 0.04 0.00 94 1027.5
20220118044014 29 277 9.0 17.0 0.00 0.04 0.00 94 1027.5
20220118043910 29 256 9.0 17.0 0.00 0.04 0.00 94 1027.5
20220118043812 29 289 8.0 17.0 0.00 0.04 0.00 94 1027.3
20220118043807 29 289 8.0 17.0 0.00 0.04 0.00 94 1027.3
20220118043657 29 279 5.0 17.0 0.00 0.04 0.00 94 1027.5
20220118043549 29 296 12.0 17.0 0.00 0.04 0.00 94 1027.4
20220118043445 29 327 9.0 16.0 0.00 0.04 0.00 94 1027.6
20220118043339 29 320 9.0 14.0 0.00 0.04 0.00 94 1027.5
20220118043259 29 320 9.0 14.0 0.00 0.04 0.00 94 1027.5
20220118043234 29 315 7.0 14.0 0.00 0.04 0.00 94 1027.5
20220118043126 29 285 6.0 14.0 0.00 0.04 0.00 94 1027.3
20220118043020 29 330 4.0 14.0 0.00 0.04 0.00 94 1027.5
20220118042914 29 296 6.0 14.0 0.00 0.04 0.00 94 1027.6
20220118042807 29 289 5.0 14.0 0.00 0.04 0.00 94 1027.4
20220118042753 29 352 4.0 14.0 0.00 0.04 0.00 94 1027.4
20220118042703 29 297 7.0 14.0 0.00 0.04 0.00 94 1027.4
20220118042557 29 293 7.0 11.0 0.00 0.04 0.00 94 1027.5
20220118042449 29 308 8.0 11.0 0.00 0.04 0.00 94 1027.5
20220118042343 28 278 4.0 11.0 0.00 0.04 0.00 94 1027.3
20220118042245 28 327 7.0 10.0 0.00 0.04 0.00 94 1027.3
20220118042238 28 327 7.0 10.0 0.00 0.04 0.00 94 1027.4
20220118042133 28 327 9.0 10.0 0.00 0.04 0.00 94 1027.3
20220118042015 28 306 9.0 11.0 0.00 0.04 0.00 95 1027.3
20220118041909 28 305 7.0 11.0 0.00 0.04 0.00 95 1027.2
20220118041805 28 314 7.0 11.0 0.00 0.04 0.00 94 1027.2
20220118041739 28 279 4.0 11.0 0.00 0.04 0.00 94 1027.1
20220118041657 28 325 6.0 11.0 0.00 0.04 0.00 94 1027.1
20220118041551 28 306 5.0 11.0 0.00 0.04 0.00 95 1026.9
20220118041444 28 259 6.0 11.0 0.00 0.04 0.00 95 1027.1
20220118041340 28 309 7.0 13.0 0.00 0.04 0.00 94 1027.1
20220118041229 28 309 7.0 13.0 0.00 0.04 0.00 95 1027.1
20220118041223 28 348 4.0 13.0 0.00 0.04 0.00 95 1027.1
20220118041116 28 352 5.0 14.0 0.00 0.04 0.00 95 1026.9
20220118041012 28 320 7.0 14.0 0.00 0.04 0.00 95 1026.9
20220118040904 28 2 4.0 14.0 0.00 0.04 0.00 95 1026.9
20220118040759 28 351 5.0 14.0 0.00 0.04 0.00 94 1026.9
20220118040720 28 49 2.0 14.0 0.00 0.04 0.00 94 1026.9
20220118040653 28 45 5.0 14.0 0.00 0.04 0.00 94 1026.9
20220118040547 28 292 6.0 14.0 0.00 0.04 0.00 95 1026.8
20220118040443 28 314 7.0 14.0 0.00 0.04 0.00 95 1026.9
20220118040334 28 285 3.0 14.0 0.00 0.04 0.00 95 1026.9
20220118040216 28 294 6.0 14.0 0.00 0.04 0.00 95 1027.1
20220118040110 28 279 6.0 10.0 0.00 0.04 0.00 95 1026.8
20220118040006 28 318 6.0 10.0 0.00 0.04 0.00 94 1026.7
20220118035900 28 272 6.0 10.0 0.00 0.04 0.00 95 1026.9
20220118035753 28 286 8.0 10.0 0.00 0.04 0.00 95 1026.9
20220118035704 28 264 9.0 10.0 0.00 0.05 0.00 95 1027.1
20220118035648 28 236 6.0 10.0 0.00 0.05 0.00 95 1027.1
20220118035541 28 313 4.0 10.0 0.00 0.05 0.00 95 1027.1
20220118035436 28 272 5.0 10.0 0.00 0.05 0.00 95 1026.7
20220118035329 28 312 8.0 14.0 0.00 0.05 0.00 95 1026.8
20220118035225 28 25 7.0 14.0 0.00 0.05 0.00 95 1026.9
20220118035157 28 330 4.0 14.0 0.00 0.05 0.00 95 1026.9
20220118035119 28 339 5.0 14.0 0.00 0.05 0.00 95 1026.9
20220118035000 28 301 5.0 14.0 0.00 0.05 0.00 95 1027.1
20220118034855 28 348 4.0 14.0 0.00 0.05 0.00 95 1026.9
20220118034748 28 30 3.0 14.0 0.00 0.05 0.00 95 1027.1
20220118034649 28 316 6.0 14.0 0.00 0.05 0.00 95 1027.1
20220118034643 28 312 8.0 14.0 0.00 0.05 0.00 95 1027.1
20220118034536 28 293 7.0 14.0 0.00 0.05 0.00 95 1026.7
20220118034430 28 315 10.0 14.0 0.00 0.05 0.00 95 1026.6
20220118034323 28 261 8.0 11.0 0.00 0.05 0.00 95 1026.7
20220118034217 28 337 5.0 13.0 0.00 0.05 0.00 95 1026.6
20220118034139 28 353 5.0 13.0 0.00 0.05 0.00 95 1026.8
20220118034113 28 289 4.0 13.0 0.00 0.05 0.00 95 1026.8
20220118033957 28 317 6.0 13.0 0.00 0.05 0.00 95 1026.8
20220118033850 28 288 7.0 13.0 0.00 0.05 0.00 95 1026.6
20220118033744 28 34 3.0 13.0 0.00 0.05 0.00 95 1026.7
20220118033637 28 300 6.0 13.0 0.00 0.05 0.00 95 1026.7
20220118033520 28 310 4.0 13.0 0.00 0.05 0.00 95 1026.6
20220118033414 28 283 8.0 13.0 0.00 0.05 0.00 95 1026.5
20220118033309 28 313 8.0 10.0 0.00 0.05 0.00 95 1026.7
20220118033203 28 352 4.0 10.0 0.00 0.05 0.00 95 1026.7
20220118033113 28 344 3.0 10.0 0.00 0.05 0.00 95 1026.7
20220118033057 28 316 3.0 10.0 0.00 0.05 0.00 95 1026.7
20220118032951 28 292 6.0 10.0 0.00 0.05 0.00 95 1026.7
20220118032844 28 280 3.0 10.0 0.00 0.05 0.00 95 1026.7
20220118032738 28 294 6.0 10.0 0.00 0.05 0.00 95 1026.5
20220118032634 28 278 7.0 10.0 0.00 0.05 0.00 95 1026.6
20220118032607 28 323 4.0 10.0 0.00 0.05 0.00 95 1026.6
20220118032529 28 323 4.0 10.0 0.00 0.05 0.00 95 1026.5
20220118032420 28 306 9.0 10.0 0.00 0.06 0.00 95 1026.5
20220118032315 28 331 4.0 10.0 0.00 0.06 0.00 95 1026.5
20220118032208 28 291 4.0 10.0 0.00 0.06 0.00 95 1026.6
20220118032101 28 296 4.0 10.0 0.00 0.06 0.00 95 1026.5
20220118031957 28 280 6.0 10.0 0.00 0.06 0.00 95 1026.4
20220118031850 28 302 7.0 10.0 0.00 0.06 0.00 95 1026.3
20220118031745 28 309 7.0 9.0 0.00 0.06 0.00 95 1026.3
20220118031638 28 252 6.0 9.0 0.00 0.06 0.00 95 1026.6
20220118031550 28 10 4.0 9.0 0.00 0.06 0.00 95 1026.6
20220118031533 28 305 6.0 9.0 0.00 0.06 0.00 95 1026.3
20220118031426 28 316 3.0 9.0 0.00 0.06 0.00 95 1026.5
20220118031320 28 320 4.0 9.0 0.00 0.06 0.00 95 1026.3
20220118031214 28 281 5.0 9.0 0.00 0.06 0.00 95 1026.4
20220118031108 28 297 5.0 8.0 0.00 0.06 0.00 95 1026.5
20220118031041 28 337 4.0 8.0 0.00 0.06 0.00 95 1026.4
20220118031002 28 277 2.0 9.0 0.00 0.06 0.00 95 1026.4
20220118030856 28 330 4.0 9.0 0.00 0.06 0.00 95 1026.2
20220118030749 28 336 4.0 9.0 0.00 0.06 0.00 95 1026.4
20220118030645 28 316 4.0 9.0 0.00 0.06 0.00 94 1026.3
20220118030529 28 272 4.0 9.0 0.00 0.06 0.00 94 1026.2
20220118030424 28 46 3.0 9.0 0.00 0.06 0.00 94 1026.1
20220118030314 28 288 4.0 10.0 0.00 0.06 0.00 94 1026.2
20220118030209 28 296 4.0 10.0 0.00 0.06 0.00 94 1026.0
20220118030103 28 304 8.0 10.0 0.00 0.06 0.00 94 1026.1
20220118030026 28 256 6.0 10.0 0.00 0.06 0.00 94 1026.2
20220118025959 28 269 5.0 10.0 0.00 0.06 0.00 94 1026.2
20220118025851 28 344 4.0 10.0 0.00 0.06 0.00 94 1026.2
20220118025744 28 295 3.0 10.0 0.00 0.06 0.00 94 1026.1
20220118025640 28 267 7.0 10.0 0.00 0.06 0.00 94 1026.2
20220118025517 28 315 5.0 10.0 0.00 0.06 0.00 94 1026.2
20220118025427 28 342 6.0 10.0 0.00 0.07 0.00 94 1026.0
20220118025311 28 280 5.0 8.0 0.00 0.07 0.00 94 1026.2
20220118025206 28 294 5.0 9.0 0.00 0.07 0.00 94 1026.3
20220118025058 28 307 4.0 10.0 0.00 0.07 0.00 94 1026.2
20220118025009 28 14 4.0 10.0 0.00 0.07 0.00 94 1026.5
20220118024953 28 7 3.0 10.0 0.00 0.07 0.00 94 1026.5
20220118024846 28 289 6.0 10.0 0.00 0.07 0.00 94 1026.2
20220118024741 28 293 4.0 10.0 0.00 0.07 0.00 94 1026.1
20220118024635 28 303 6.0 10.0 0.00 0.07 0.00 94 1026.0
20220118024529 28 347 6.0 10.0 0.00 0.07 0.00 94 1026.1
20220118024502 28 291 7.0 10.0 0.00 0.07 0.00 94 1026.1
20220118024424 28 309 4.0 10.0 0.00 0.07 0.00 94 1026.3
20220118024317 28 334 7.0 10.0 0.00 0.07 0.00 94 1026.1
20220118024212 28 317 9.0 11.0 0.00 0.07 0.00 94 1026.0
20220118024104 28 281 2.0 11.0 0.00 0.07 0.00 94 1026.2
20220118023959 28 306 6.0 11.0 0.00 0.07 0.00 94 1026.1
20220118023852 28 322 4.0 11.0 0.00 0.07 0.00 94 1025.9
20220118023745 28 322 5.0 11.0 0.00 0.07 0.00 94 1026.0
20220118023641 28 281 7.0 11.0 0.00 0.07 0.00 94 1026.0
20220118023536 28 316 6.0 11.0 0.00 0.07 0.00 94 1026.0
20220118023445 28 313 6.0 11.0 0.00 0.07 0.00 94 1026.2
20220118023429 28 308 6.0 11.0 0.00 0.07 0.00 94 1026.2
20220118023323 28 281 9.0 11.0 0.00 0.07 0.00 94 1026.2
20220118023205 28 331 6.0 9.0 0.00 0.07 0.00 94 1026.3
20220118023101 28 306 4.0 9.0 0.00 0.07 0.00 94 1026.3
20220118022938 28 298 5.0 8.0 0.00 0.07 0.00 94 1026.3
20220118022848 28 298 6.0 8.0 0.00 0.07 0.00 94 1026.2
20220118022743 28 5 4.0 8.0 0.00 0.07 0.00 94 1026.2
20220118022637 28 298 7.0 8.0 0.00 0.07 0.00 94 1026.1
20220118022529 28 304 4.0 8.0 0.00 0.07 0.00 94 1026.3
20220118022431 28 300 6.0 9.0 0.00 0.07 0.00 94 1026.0
20220118022424 28 300 6.0 13.0 0.00 0.07 0.00 94 1026.0
20220118022319 28 4 4.0 13.0 0.00 0.07 0.00 94 1026.3
20220118022212 28 8 3.0 13.0 0.00 0.07 0.00 94 1026.4
20220118022106 28 14 3.0 13.0 0.00 0.07 0.00 94 1026.5
20220118022001 28 315 4.0 13.0 0.00 0.07 0.00 94 1026.3
20220118021920 28 283 5.0 13.0 0.00 0.07 0.00 94 1026.0
20220118021853 28 313 6.0 13.0 0.00 0.07 0.00 94 1026.0
20220118021747 28 330 5.0 13.0 0.00 0.07 0.00 94 1026.2
20220118021643 29 55 3.0 13.0 0.00 0.07 0.00 94 1026.2
20220118021536 29 350 4.0 13.0 0.00 0.07 0.00 94 1026.3
20220118021412 29 288 3.0 13.0 0.00 0.07 0.00 93 1026.1
20220118021325 29 286 3.0 13.0 0.00 0.07 0.00 93 1026.3
20220118021218 29 256 8.0 13.0 0.00 0.07 0.00 93 1026.4
20220118021112 29 311 6.0 13.0 0.00 0.07 0.00 94 1026.3
20220118021005 29 303 5.0 13.0 0.00 0.07 0.00 93 1026.0
20220118020907 29 252 6.0 13.0 0.00 0.07 0.00 94 1026.2
20220118020901 29 294 5.0 13.0 0.00 0.07 0.00 94 1026.2
20220118020754 29 304 7.0 13.0 0.00 0.07 0.00 94 1026.1
20220118020646 29 265 5.0 13.0 0.00 0.07 0.00 93 1026.5
20220118020540 29 309 5.0 13.0 0.00 0.07 0.00 93 1026.4
20220118020434 29 272 6.0 13.0 0.00 0.07 0.00 94 1026.4
20220118020358 29 272 6.0 13.0 0.00 0.07 0.00 94 1026.4
20220118020330 29 279 6.0 10.0 0.00 0.07 0.00 94 1026.4
20220118020212 29 302 8.0 10.0 0.00 0.07 0.00 94 1026.2
20220118020106 29 245 6.0 10.0 0.00 0.07 0.00 94 1026.4
20220118015959 29 319 5.0 10.0 0.00 0.07 0.00 93 1026.3
20220118015854 29 317 5.0 10.0 0.00 0.07 0.00 93 1026.3
20220118015749 29 323 5.0 13.0 0.00 0.07 0.00 93 1026.2
20220118015643 29 321 3.0 13.0 0.00 0.07 0.00 93 1026.4
20220118015536 29 2 3.0 13.0 0.00 0.07 0.00 93 1026.3
20220118015431 29 266 4.0 13.0 0.00 0.07 0.00 93 1026.1
20220118015342 29 313 5.0 13.0 0.00 0.07 0.00 93 1026.1
20220118015325 29 313 5.0 13.0 0.00 0.07 0.00 93 1026.4
20220118015219 29 2 4.0 13.0 0.00 0.07 0.00 93 1026.3
20220118015112 29 311 6.0 13.0 0.00 0.07 0.00 93 1026.4
20220118014954 29 8 6.0 13.0 0.00 0.07 0.00 93 1026.7
20220118014834 29 267 7.0 13.0 0.00 0.07 0.00 93 1026.4
20220118014742 29 304 7.0 11.0 0.00 0.07 0.00 93 1026.4
20220118014636 29 315 4.0 11.0 0.00 0.07 0.00 93 1026.4
20220118014531 29 262 5.0 11.0 0.00 0.07 0.00 93 1026.4
20220118014424 29 301 6.0 11.0 0.00 0.07 0.00 93 1026.3
20220118014321 29 270 5.0 11.0 0.00 0.07 0.00 93 1026.4
20220118014213 29 308 3.0 11.0 0.00 0.07 0.00 93 1026.4
20220118014108 29 316 5.0 11.0 0.00 0.07 0.00 93 1026.6
20220118013949 29 282 7.0 11.0 0.00 0.07 0.00 93 1026.2
20220118013845 29 264 6.0 11.0 0.00 0.07 0.00 93 1026.4
20220118013818 29 292 11.0 11.0 0.00 0.07 0.00 93 1026.4
20220118013738 29 259 7.0 10.0 0.00 0.07 0.00 93 1026.5
20220118013633 29 302 7.0 10.0 0.00 0.07 0.00 93 1026.3
20220118013525 29 350 3.0 10.0 0.00 0.07 0.00 93 1026.5
20220118013420 29 322 4.0 10.0 0.00 0.07 0.00 93 1026.4
20220118013313 29 320 6.0 10.0 0.00 0.07 0.00 93 1026.4
20220118013259 29 304 6.0 10.0 0.00 0.07 0.00 93 1026.4
20220118013207 29 312 8.0 10.0 0.00 0.07 0.00 93 1026.2
20220118013104 29 318 4.0 9.0 0.00 0.07 0.00 93 1026.5
20220118012956 29 327 6.0 9.0 0.00 0.07 0.00 93 1026.5
20220118012849 29 14 4.0 9.0 0.00 0.07 0.00 93 1026.4
20220118012754 29 290 6.0 9.0 0.00 0.07 0.00 93 1026.4
20220118012745 29 338 5.0 9.0 0.00 0.07 0.00 93 1026.4
20220118012638 29 328 4.0 10.0 0.00 0.07 0.00 93 1026.4
20220118012533 29 316 6.0 10.0 0.00 0.07 0.00 93 1026.4
20220118012429 29 304 3.0 10.0 0.00 0.07 0.00 93 1026.5
20220118012321 29 314 5.0 10.0 0.00 0.07 0.00 93 1026.4
20220118012241 29 304 8.0 10.0 0.00 0.07 0.00 93 1026.4
20220118012218 29 288 6.0 10.0 0.00 0.07 0.00 93 1026.4
20220118012109 29 0 5.0 10.0 0.00 0.07 0.00 93 1026.4
20220118012002 29 333 4.0 10.0 0.00 0.07 0.00 93 1026.6
20220118011856 29 312 2.0 10.0 0.00 0.07 0.00 93 1026.3
20220118011749 29 58 2.0 10.0 0.00 0.07 0.00 93 1026.3
20220118011734 29 340 5.0 10.0 0.00 0.07 0.00 93 1026.3
20220118011643 29 292 8.0 10.0 0.00 0.07 0.00 93 1026.2
20220118011538 29 274 5.0 10.0 0.00 0.07 0.00 93 1026.4
20220118011433 29 314 5.0 10.0 0.00 0.07 0.00 93 1026.4
20220118011326 29 341 3.0 10.0 0.00 0.07 0.00 93 1026.2
20220118011227 29 41 2.0 10.0 0.00 0.07 0.00 93 1026.2
20220118011220 29 294 6.0 10.0 0.00 0.07 0.00 93 1026.2
20220118011113 29 294 8.0 10.0 0.00 0.07 0.00 93 1026.3
20220118011007 29 336 6.0 13.0 0.00 0.07 0.00 93 1026.4
20220118010902 29 281 4.0 13.0 0.00 0.07 0.00 93 1026.4
20220118010755 29 296 5.0 14.0 0.00 0.07 0.00 93 1026.2
20220118010718 29 12 4.0 14.0 0.00 0.07 0.00 93 1026.2
20220118010651 29 297 7.0 14.0 0.00 0.07 0.00 93 1026.3
20220118010543 29 296 7.0 14.0 0.00 0.07 0.00 93 1026.2
20220118010438 29 290 7.0 14.0 0.00 0.07 0.00 93 1026.0
20220118010331 29 10 4.0 14.0 0.00 0.07 0.00 93 1026.3
20220118010212 29 340 6.0 14.0 0.00 0.07 0.00 93 1026.2
20220118010118 29 314 6.0 14.0 0.00 0.07 0.00 93 1026.2
20220118010027 29 331 7.0 14.0 0.00 0.07 0.00 93 1026.2
20220118005907 29 347 6.0 14.0 0.00 0.07 0.00 93 1026.0
20220118005802 29 309 7.0 14.0 0.00 0.07 0.00 93 1026.0
20220118005655 29 355 4.0 14.0 0.00 0.07 0.00 93 1026.1
20220118005551 29 299 8.0 14.0 0.00 0.07 0.00 93 1025.9
20220118005444 29 1 3.0 14.0 0.00 0.07 0.00 93 1026.0
20220118005337 29 309 5.0 15.0 0.00 0.07 0.00 93 1025.6
20220118005234 29 344 4.0 15.0 0.00 0.07 0.00 93 1025.8
20220118005155 29 320 9.0 15.0 0.00 0.07 0.00 93 1025.8
20220118005126 29 312 5.0 15.0 0.00 0.07 0.00 93 1025.9
20220118005019 29 27 4.0 15.0 0.00 0.07 0.00 93 1026.0
20220118004914 29 304 7.0 15.0 0.00 0.07 0.00 93 1026.0
20220118004808 29 321 5.0 15.0 0.00 0.07 0.00 93 1025.8
20220118004703 29 288 9.0 15.0 0.00 0.07 0.00 93 1025.8
20220118004647 29 293 7.0 15.0 0.00 0.07 0.00 93 1025.8
20220118004558 29 328 3.0 15.0 0.00 0.07 0.00 93 1025.9
20220118004450 29 280 12.0 15.0 0.00 0.07 0.00 93 1025.8
20220118004344 29 12 4.0 11.0 0.00 0.07 0.00 93 1025.6
20220118004238 29 285 9.0 11.0 0.00 0.07 0.00 93 1025.6
20220118004138 29 319 6.0 10.0 0.00 0.07 0.00 93 1025.8
20220118004132 29 315 5.0 10.0 0.00 0.07 0.00 93 1025.8
20220118004027 29 335 4.0 11.0 0.00 0.07 0.00 93 1025.6
20220118003919 29 303 6.0 11.0 0.00 0.07 0.00 93 1025.7
20220118003814 29 306 6.0 11.0 0.00 0.07 0.00 93 1025.7
20220118003708 29 311 9.0 11.0 0.00 0.07 0.00 93 1025.7
20220118003631 29 336 3.0 11.0 0.00 0.07 0.00 93 1025.7
20220118003601 29 31 3.0 11.0 0.00 0.07 0.00 93 1025.7
20220118003458 29 274 7.0 11.0 0.00 0.07 0.00 93 1025.6
20220118003349 29 306 3.0 11.0 0.00 0.07 0.00 93 1025.6
20220118003245 29 352 5.0 11.0 0.00 0.07 0.00 93 1025.7
20220118003140 29 269 5.0 11.0 0.00 0.07 0.00 93 1025.6
20220118003121 29 282 9.0 11.0 0.00 0.07 0.00 93 1025.6
20220118003033 29 19 5.0 11.0 0.00 0.07 0.00 93 1025.4
20220118002927 29 52 5.0 11.0 0.00 0.07 0.00 93 1025.5
20220118002822 29 324 4.0 11.0 0.00 0.07 0.00 93 1025.6
20220118002717 29 347 7.0 11.0 0.00 0.07 0.00 93 1025.6
20220118002608 29 323 6.0 11.0 0.00 0.07 0.00 93 1025.7
20220118002503 29 5 4.0 11.0 0.00 0.07 0.00 93 1025.7
20220118002356 29 333 3.0 11.0 0.00 0.07 0.00 93 1025.6
20220118002250 29 254 4.0 11.0 0.00 0.07 0.00 93 1025.5
20220118002145 29 336 9.0 11.0 0.00 0.07 0.00 93 1025.5
20220118002105 29 295 7.0 10.0 0.00 0.07 0.00 93 1025.5
20220118002038 29 308 7.0 10.0 0.00 0.07 0.00 93 1025.7
20220118001933 29 357 7.0 10.0 0.00 0.07 0.00 93 1025.5
20220118001826 29 301 8.0 10.0 0.00 0.07 0.00 93 1025.4
20220118001722 29 290 6.0 10.0 0.00 0.07 0.00 93 1025.3
20220118001615 29 12 3.0 11.0 0.00 0.07 0.00 93 1025.4
20220118001557 29 323 6.0 11.0 0.00 0.07 0.00 93 1025.4
20220118001509 29 354 4.0 11.0 0.00 0.07 0.00 93 1025.4
20220118001403 29 336 4.0 11.0 0.00 0.07 0.00 93 1025.5
20220118001258 29 321 6.0 11.0 0.00 0.07 0.00 93 1025.5
20220118001151 29 270 3.0 11.0 0.00 0.07 0.00 93 1025.6
20220118001050 29 314 5.0 11.0 0.00 0.07 0.00 93 1025.8
20220118001044 29 314 5.0 11.0 0.00 0.07 0.00 93 1025.5
20220118000937 29 266 8.0 11.0 0.00 0.07 0.00 93 1025.5
20220118000831 29 336 4.0 11.0 0.00 0.07 0.00 93 1025.5
20220118000725 29 320 7.0 11.0 0.00 0.07 0.00 93 1025.5
20220118000620 29 310 8.0 11.0 0.00 0.07 0.00 93 1025.4
20220118000542 29 324 9.0 11.0 0.00 0.07 0.00 93 1025.6
20220118000514 29 311 8.0 11.0 0.00 0.07 0.00 93 1025.6
20220118000408 29 307 7.0 11.0 0.00 0.07 0.00 93 1025.5
20220118000302 29 294 7.0 14.0 0.00 0.07 0.00 93 1025.4
20220118000155 29 345 4.0 14.0 0.00 0.07 0.00 93 1025.3
20220118000035 29 289 4.0 14.0 0.00 0.07 0.00 93 1025.8
20220117235945 29 314 7.0 14.0 0.00 0.07 0.00 93 1025.5
20220117235837 29 258 10.0 14.0 0.00 0.07 0.00 93 1025.5
20220117235732 29 282 9.0 14.0 0.00 0.07 0.00 93 1025.4
20220117235625 29 12 5.0 14.0 0.00 0.07 0.00 93 1025.4
20220117235520 29 309 6.0 14.0 0.00 0.07 0.00 93 1025.3
20220117235414 29 290 8.0 14.0 0.00 0.07 0.00 93 1025.5
20220117235308 29 262 9.0 13.0 0.00 0.07 0.00 93 1025.3
20220117235203 29 289 6.0 11.0 0.00 0.07 0.00 93 1025.3
20220117235056 29 313 5.0 11.0 0.00 0.07 0.00 93 1025.5
20220117235019 29 286 8.0 11.0 0.00 0.07 0.00 93 1025.2
20220117234951 29 329 9.0 11.0 0.00 0.07 0.00 93 1025.2
20220117234843 29 309 5.0 11.0 0.00 0.07 0.00 93 1025.3
20220117234738 29 311 7.0 11.0 0.00 0.07 0.00 93 1025.5
20220117234632 29 272 5.0 11.0 0.00 0.07 0.00 93 1025.3
20220117234526 29 301 3.0 11.0 0.00 0.07 0.00 93 1025.5
20220117234511 29 279 5.0 11.0 0.00 0.07 0.00 93 1025.5
20220117234419 29 28 2.0 11.0 0.00 0.07 0.00 93 1025.2
20220117234314 29 314 6.0 11.0 0.00 0.07 0.00 93 1025.4
20220117234207 29 288 5.0 10.0 0.00 0.07 0.00 93 1025.3
20220117234103 29 329 5.0 10.0 0.00 0.07 0.00 93 1025.2
20220117234002 29 334 4.0 10.0 0.00 0.07 0.00 93 1025.4
20220117233956 29 322 5.0 10.0 0.00 0.07 0.00 93 1025.4
20220117233850 29 300 4.0 14.0 0.00 0.07 0.00 93 1025.2
20220117233745 29 296 9.0 14.0 0.00 0.07 0.00 93 1025.3
20220117233639 29 282 6.0 14.0 0.00 0.07 0.00 93 1025.2
20220117233532 29 266 5.0 14.0 0.00 0.07 0.00 93 1025.3
20220117233453 29 292 7.0 14.0 0.00 0.07 0.00 93 1025.3
20220117233416 29 314 8.0 14.0 0.00 0.07 0.00 93 1025.0
20220117233310 29 346 3.0 14.0 0.00 0.07 0.00 93 1025.1
20220117233151 29 322 3.0 14.0 0.00 0.07 0.00 93 1025.2
20220117233046 29 75 5.0 14.0 0.00 0.07 0.00 93 1025.1
20220117232946 29 318 11.0 14.0 0.00 0.07 0.00 93 1025.0
20220117232939 29 300 10.0 13.0 0.00 0.07 0.00 93 1025.0
20220117232833 29 296 5.0 11.0 0.00 0.07 0.00 93 1025.0
20220117232729 29 332 2.0 11.0 0.00 0.07 0.00 93 1025.0
20220117232622 29 292 9.0 11.0 0.00 0.07 0.00 93 1025.2
20220117232516 29 292 6.0 11.0 0.00 0.07 0.00 93 1025.2
20220117232440 29 359 3.0 11.0 0.00 0.07 0.00 93 1025.2
20220117232409 29 359 3.0 11.0 0.00 0.07 0.00 93 1025.2
20220117232305 29 248 6.0 11.0 0.00 0.07 0.00 93 1025.1
20220117232158 29 286 7.0 10.0 0.00 0.07 0.00 93 1025.1
20220117232051 29 292 8.0 10.0 0.00 0.07 0.00 93 1024.9
20220117231931 29 24 3.0 10.0 0.00 0.07 0.00 93 1025.0
20220117231839 29 272 7.0 10.0 0.00 0.07 0.00 93 1025.0
20220117231735 29 301 5.0 10.0 0.00 0.07 0.00 93 1025.0
20220117231618 29 313 5.0 10.0 0.00 0.07 0.00 93 1024.8
20220117231513 29 279 8.0 10.0 0.00 0.07 0.00 93 1025.0
20220117231422 29 305 8.0 10.0 0.00 0.07 0.00 93 1025.0
20220117231405 29 39 2.0 10.0 0.00 0.07 0.00 93 1025.0
20220117231259 29 308 4.0 10.0 0.00 0.07 0.00 93 1025.0
20220117231154 29 285 4.0 10.0 0.00 0.07 0.00 93 1024.9
20220117231047 29 323 6.0 10.0 0.00 0.07 0.00 93 1025.0
20220117230943 29 16 3.0 10.0 0.00 0.07 0.00 93 1025.0
20220117230916 29 330 7.0 10.0 0.00 0.07 0.00 93 1025.0
20220117230836 29 309 10.0 10.0 0.00 0.07 0.00 93 1025.0
20220117230731 29 270 6.0 10.0 0.00 0.07 0.00 93 1024.8
20220117230625 29 301 4.0 10.0 0.00 0.07 0.00 93 1024.9
20220117230518 29 286 7.0 10.0 0.00 0.07 0.00 93 1024.8
20220117230412 29 294 6.0 10.0 0.00 0.07 0.00 93 1024.9
20220117230307 29 316 6.0 11.0 0.00 0.07 0.00 93 1024.7
20220117230200 29 310 7.0 11.0 0.00 0.07 0.00 93 1024.8
20220117230052 29 305 6.0 11.0 0.00 0.07 0.00 93 1024.8
20220117225946 29 321 6.0 11.0 0.00 0.07 0.07 93 1024.8
20220117225858 29 332 4.0 11.0 0.00 0.07 0.07 93 1024.8
20220117225840 29 287 5.0 11.0 0.00 0.07 0.07 93 1024.8
20220117225735 29 311 6.0 11.0 0.00 0.07 0.07 93 1024.6
20220117225630 29 353 6.0 11.0 0.00 0.07 0.07 93 1024.7
20220117225522 29 302 5.0 11.0 0.00 0.07 0.07 93 1024.6
20220117225417 29 271 6.0 11.0 0.00 0.07 0.07 93 1024.6
20220117225349 29 302 8.0 11.0 0.00 0.07 0.07 93 1024.6
20220117225311 29 268 10.0 11.0 0.00 0.07 0.07 93 1024.7
20220117225204 29 316 6.0 11.0 0.00 0.07 0.07 93 1024.7
20220117225058 29 270 6.0 11.0 0.00 0.07 0.07 92 1024.7
20220117224954 29 253 7.0 11.0 0.00 0.07 0.07 92 1024.6
20220117224845 29 302 5.0 11.0 0.00 0.07 0.07 92 1024.5
20220117224741 29 56 3.0 11.0 0.00 0.07 0.07 92 1024.6
20220117224636 29 249 7.0 11.0 0.00 0.07 0.07 92 1024.4
20220117224529 29 310 6.0 11.0 0.00 0.07 0.07 92 1024.7
20220117224422 29 318 4.0 11.0 0.00 0.07 0.07 92 1024.6
20220117224333 29 325 5.0 11.0 0.00 0.07 0.07 92 1024.6
20220117224317 29 285 4.0 11.0 0.00 0.07 0.07 92 1024.7
20220117224212 29 292 8.0 10.0 0.00 0.07 0.07 92 1024.5
20220117224105 29 257 5.0 10.0 0.00 0.07 0.07 92 1024.5
20220117223958 29 285 5.0 10.0 0.00 0.07 0.07 92 1024.4
20220117223852 29 316 5.0 10.0 0.00 0.07 0.07 92 1024.6
20220117223825 29 56 4.0 10.0 0.00 0.07 0.07 92 1024.4
20220117223746 29 322 5.0 10.0 0.00 0.07 0.07 92 1024.4
20220117223644 29 324 3.0 10.0 0.00 0.07 0.07 92 1024.5
20220117223537 29 288 6.0 11.0 0.00 0.07 0.07 92 1024.2
20220117223430 29 324 9.0 11.0 0.00 0.07 0.07 92 1024.3
20220117223325 29 328 3.0 11.0 0.00 0.07 0.07 92 1024.4
20220117223218 29 305 6.0 13.0 0.00 0.07 0.07 92 1024.3
20220117223111 29 336 4.0 13.0 0.00 0.07 0.07 92 1024.5
20220117223008 29 296 6.0 13.0 0.00 0.07 0.07 92 1024.4
20220117222901 29 43 2.0 13.0 0.00 0.07 0.07 92 1024.3
20220117222811 29 41 3.0 13.0 0.00 0.07 0.07 92 1024.2
20220117222755 29 20 4.0 13.0 0.00 0.07 0.07 92 1024.2
20220117222649 29 279 7.0 13.0 0.00 0.07 0.07 92 1024.4
20220117222542 29 329 6.0 13.0 0.00 0.07 0.07 92 1024.1
20220117222437 29 328 7.0 13.0 0.00 0.07 0.07 92 1024.3
20220117222329 29 311 10.0 13.0 0.00 0.07 0.07 92 1024.3
20220117222305 29 313 9.0 11.0 0.00 0.07 0.07 92 1024.3
20220117222227 29 304 4.0 11.0 0.00 0.07 0.07 92 1024.4
20220117222118 29 278 4.0 11.0 0.00 0.07 0.07 91 1024.3
20220117222013 29 270 11.0 11.0 0.00 0.07 0.07 92 1024.1
20220117221905 29 268 6.0 10.0 0.00 0.07 0.07 92 1024.3
20220117221759 29 303 6.0 10.0 0.00 0.07 0.07 92 1024.4
20220117221655 29 293 7.0 10.0 0.00 0.07 0.07 92 1024.3
20220117221547 29 343 4.0 10.0 0.00 0.07 0.07 91 1024.2
20220117221444 29 339 5.0 10.0 0.00 0.07 0.07 91 1024.2
20220117221338 29 336 2.0 10.0 0.00 0.07 0.07 91 1024.3
20220117221246 29 280 9.0 10.0 0.00 0.07 0.07 91 1024.3
20220117221230 29 333 7.0 10.0 0.00 0.07 0.07 91 1023.8
20220117221124 29 325 6.0 10.0 0.00 0.07 0.07 91 1024.2
20220117221018 29 343 7.0 10.0 0.00 0.07 0.07 91 1024.3
20220117220913 29 318 8.0 10.0 0.00 0.07 0.07 91 1024.3
20220117220807 29 2 6.0 10.0 0.00 0.07 0.07 91 1024.3
20220117220738 29 337 8.0 10.0 0.00 0.07 0.07 91 1024.3
20220117220700 29 315 7.0 10.0 0.00 0.07 0.07 91 1024.0
20220117220553 29 315 7.0 10.0 0.00 0.07 0.07 91 1024.2
20220117220448 29 274 7.0 10.0 0.00 0.07 0.07 91 1024.0
20220117220343 29 292 4.0 10.0 0.00 0.07 0.07 91 1024.0
20220117220234 29 282 6.0 10.0 0.00 0.07 0.07 91 1024.1
20220117220131 29 281 6.0 10.0 0.00 0.07 0.07 91 1024.1
20220117220026 29 321 4.0 10.0 0.00 0.07 0.07 91 1023.8
20220117215920 29 60 6.0 10.0 0.00 0.07 0.07 91 1023.9
20220117215811 29 344 8.0 9.0 0.00 0.07 0.07 91 1024.0
20220117215721 29 307 6.0 9.0 0.00 0.07 0.07 91 1024.0
20220117215704 29 331 5.0 9.0 0.00 0.07 0.07 91 1024.0
20220117215600 29 285 6.0 9.0 0.00 0.07 0.07 91 1024.0
20220117215453 29 263 6.0 9.0 0.00 0.07 0.07 91 1023.9
20220117215346 29 341 6.0 9.0 0.00 0.07 0.07 91 1024.0
20220117215242 29 308 6.0 9.0 0.00 0.07 0.07 91 1024.0
20220117215214 29 312 3.0 9.0 0.00 0.07 0.07 91 1023.8
20220117215135 29 339 4.0 9.0 0.00 0.07 0.07 91 1023.9
20220117215029 29 284 6.0 9.0 0.00 0.07 0.07 91 1023.9
20220117214923 29 314 7.0 9.0 0.00 0.07 0.07 91 1023.7
20220117214818 29 260 3.0 9.0 0.00 0.07 0.07 91 1023.8
20220117214710 29 306 5.0 9.0 0.00 0.07 0.07 91 1023.9
20220117214605 29 359 5.0 9.0 0.00 0.07 0.07 91 1023.8
20220117214500 29 27 4.0 9.0 0.00 0.07 0.07 91 1023.8
20220117214352 29 311 6.0 9.0 0.00 0.07 0.07 91 1023.9
20220117214249 30 312 6.0 9.0 0.00 0.07 0.07 91 1023.7
20220117214157 30 312 6.0 9.0 0.00 0.07 0.07 91 1023.7
20220117214143 30 306 6.0 9.0 0.00 0.07 0.07 91 1023.7
20220117214036 29 311 5.0 9.0 0.00 0.07 0.07 91 1023.8
20220117213930 29 287 6.0 9.0 0.00 0.07 0.07 91 1023.5
20220117213813 29 309 4.0 9.0 0.00 0.07 0.07 91 1023.8
20220117213706 29 306 6.0 13.0 0.00 0.07 0.07 91 1023.5
20220117213649 30 306 6.0 13.0 0.00 0.07 0.07 91 1023.5
20220117213601 30 307 3.0 13.0 0.00 0.07 0.07 91 1023.6
20220117213453 30 277 5.0 13.0 0.00 0.07 0.07 91 1023.7
20220117213347 30 285 4.0 13.0 0.00 0.07 0.07 91 1023.7
20220117213241 30 290 5.0 13.0 0.00 0.07 0.07 91 1023.4
20220117213136 30 295 4.0 13.0 0.00 0.07 0.07 91 1023.5
20220117213030 30 300 3.0 13.0 0.00 0.07 0.07 91 1023.6
20220117212923 30 309 5.0 13.0 0.00 0.07 0.07 91 1023.5
20220117212819 30 293 10.0 13.0 0.00 0.07 0.07 91 1023.3
20220117212712 30 273 7.0 10.0 0.00 0.07 0.07 91 1023.5
20220117212634 30 358 4.0 10.0 0.00 0.07 0.07 91 1023.5
20220117212606 30 310 6.0 10.0 0.00 0.07 0.07 91 1023.4
20220117212500 30 298 3.0 10.0 0.00 0.07 0.07 91 1023.6
20220117212353 30 311 4.0 10.0 0.00 0.07 0.07 91 1023.7
20220117212248 30 280 7.0 10.0 0.00 0.07 0.07 91 1023.4
20220117212141 30 285 5.0 10.0 0.00 0.07 0.07 91 1023.4
20220117212126 30 296 5.0 10.0 0.00 0.07 0.07 91 1023.2
20220117212035 30 294 6.0 10.0 0.00 0.07 0.07 91 1023.3
20220117211929 30 317 6.0 10.0 0.00 0.07 0.07 91 1023.4
20220117211823 30 300 6.0 10.0 0.00 0.07 0.07 91 1023.7
20220117211719 30 273 7.0 10.0 0.00 0.07 0.07 91 1023.3
20220117211619 30 273 7.0 8.0 0.00 0.07 0.07 91 1023.2
20220117211612 30 346 4.0 8.0 0.00 0.07 0.07 91 1023.2
20220117211511 30 298 6.0 8.0 0.00 0.07 0.07 92 1023.4
20220117211403 29 277 8.0 8.0 0.00 0.07 0.07 92 1023.2
20220117211253 29 303 5.0 10.0 0.00 0.07 0.07 92 1023.4
20220117211147 29 317 4.0 10.0 0.00 0.07 0.07 92 1023.4
20220117211110 29 303 5.0 10.0 0.00 0.07 0.07 92 1023.4
20220117211041 29 331 3.0 10.0 0.00 0.07 0.07 92 1023.3
20220117210936 29 305 6.0 10.0 0.00 0.07 0.07 92 1023.4
20220117210829 29 309 6.0 10.0 0.00 0.07 0.07 92 1023.4
20220117210724 29 280 5.0 10.0 0.00 0.07 0.07 91 1023.2
20220117210617 30 231 4.0 10.0 0.00 0.07 0.07 91 1023.2
20220117210602 30 4 5.0 10.0 0.00 0.07 0.07 91 1023.2
20220117210513 30 294 6.0 10.0 0.00 0.07 0.07 91 1023.1
20220117210408 30 29 4.0 10.0 0.00 0.07 0.07 91 1023.1
20220117210301 30 324 5.0 10.0 0.00 0.07 0.07 91 1023.1
20220117210154 30 286 4.0 10.0 0.00 0.07 0.07 91 1023.2
20220117210056 30 327 5.0 10.0 0.00 0.07 0.07 91 1023.0
20220117210051 30 311 6.0 10.0 0.00 0.07 0.07 91 1023.0
20220117205943 30 319 3.0 10.0 0.00 0.07 0.07 91 1023.0
20220117205837 30 306 4.0 10.0 0.00 0.07 0.07 90 1022.6
20220117205730 30 296 6.0 10.0 0.00 0.07 0.07 90 1023.0
20220117205626 30 296 7.0 9.0 0.00 0.07 0.07 90 1022.9
20220117205545 30 301 4.0 9.0 0.00 0.07 0.07 90 1022.9
20220117205518 30 288 7.0 9.0 0.00 0.07 0.07 90 1023.0
20220117205414 30 321 6.0 9.0 0.00 0.07 0.07 90 1023.0
20220117205306 30 310 6.0 10.0 0.00 0.07 0.07 90 1022.6
20220117205201 30 310 7.0 10.0 0.00 0.07 0.07 90 1022.6
20220117205037 30 336 4.0 10.0 0.00 0.07 0.07 90 1022.5
20220117204949 30 2 4.0 11.0 0.00 0.07 0.07 90 1022.5
20220117204843 30 35 6.0 11.0 0.00 0.07 0.07 90 1022.6
20220117204737 30 303 5.0 11.0 0.00 0.07 0.07 90 1022.3
20220117204631 30 330 6.0 11.0 0.00 0.07 0.07 90 1022.4
20220117204532 30 283 7.0 11.0 0.00 0.07 0.07 90 1022.6
20220117204526 30 323 8.0 11.0 0.00 0.07 0.07 90 1022.6
20220117204407 30 326 3.0 11.0 0.00 0.07 0.07 90 1022.4
20220117204301 30 313 7.0 11.0 0.00 0.07 0.07 90 1022.5
20220117204156 31 325 6.0 11.0 0.00 0.07 0.07 90 1022.4
20220117204049 31 306 9.0 11.0 0.00 0.07 0.07 90 1022.6
20220117204024 31 305 7.0 11.0 0.00 0.07 0.07 90 1022.3
20220117203943 31 288 4.0 11.0 0.00 0.07 0.07 90 1022.5
20220117203837 30 322 9.0 11.0 0.00 0.07 0.07 90 1022.2
20220117203732 30 309 9.0 10.0 0.00 0.07 0.07 90 1022.4
20220117203626 30 305 5.0 9.0 0.00 0.07 0.07 90 1022.4
20220117203519 30 24 6.0 9.0 0.00 0.07 0.07 90 1022.2
20220117203413 30 305 5.0 10.0 0.00 0.07 0.07 90 1022.1
20220117203307 30 329 3.0 10.0 0.00 0.07 0.07 90 1022.1
20220117203201 30 36 3.0 10.0 0.00 0.07 0.07 90 1022.2
20220117203057 30 310 6.0 13.0 0.00 0.07 0.07 90 1022.0
20220117203007 30 270 6.0 13.0 0.00 0.07 0.07 90 1022.1
20220117202949 30 270 6.0 14.0 0.00 0.07 0.07 90 1022.1
20220117202844 30 294 6.0 14.0 0.00 0.07 0.07 90 1021.9
20220117202737 30 247 4.0 14.0 0.00 0.07 0.07 90 1021.9
20220117202632 31 319 7.0 14.0 0.00 0.07 0.07 90 1022.1
20220117202525 31 338 6.0 15.0 0.00 0.07 0.07 90 1021.7
20220117202500 31 332 7.0 15.0 0.00 0.07 0.07 90 1021.7
20220117202420 31 346 2.0 15.0 0.00 0.07 0.07 90 1021.9
20220117202313 31 322 5.0 15.0 0.00 0.07 0.07 90 1021.5
20220117202208 31 310 8.0 15.0 0.00 0.07 0.07 90 1021.6
20220117202102 31 2 7.0 15.0 0.00 0.07 0.07 90 1021.8
20220117201954 31 259 4.0 15.0 0.00 0.07 0.07 90 1021.5
20220117201849 31 297 11.0 15.0 0.00 0.07 0.07 90 1021.6
20220117201743 31 343 6.0 15.0 0.00 0.07 0.07 90 1021.7
20220117201637 31 328 6.0 15.0 0.00 0.07 0.07 90 1021.5
20220117201537 31 317 7.0 13.0 0.00 0.07 0.07 90 1021.4
20220117201442 31 311 4.0 13.0 0.00 0.07 0.07 90 1021.4
20220117201427 31 308 6.0 13.0 0.00 0.07 0.07 90 1021.7
20220117201321 30 319 10.0 13.0 0.00 0.07 0.07 90 1021.4
20220117201216 30 278 9.0 13.0 0.00 0.07 0.07 90 1021.3
20220117201109 30 338 9.0 13.0 0.00 0.07 0.07 90 1021.2
20220117201001 30 62 4.0 13.0 0.00 0.07 0.07 91 1021.5
20220117200934 30 333 3.0 13.0 0.00 0.07 0.07 91 1021.3
20220117200856 30 296 3.0 13.0 0.00 0.07 0.07 90 1021.3
20220117200750 30 10 8.0 13.0 0.00 0.07 0.07 91 1021.4
20220117200643 30 312 8.0 13.0 0.00 0.07 0.07 91 1021.2
20220117200536 30 311 5.0 13.0 0.00 0.07 0.07 91 1021.0
20220117200431 30 316 6.0 13.0 0.00 0.07 0.07 91 1021.1
20220117200324 30 323 10.0 13.0 0.00 0.07 0.07 91 1021.0
20220117200218 30 335 5.0 11.0 0.00 0.07 0.07 91 1021.2
20220117200113 30 74 3.0 11.0 0.00 0.07 0.07 91 1021.1
20220117200009 30 312 7.0 11.0 0.00 0.07 0.07 90 1021.1
20220117195918 30 288 9.0 11.0 0.00 0.07 0.07 91 1020.8
20220117195901 30 294 9.0 11.0 0.00 0.07 0.07 91 1020.8
20220117195754 30 261 6.0 11.0 0.00 0.07 0.07 91 1020.9
20220117195649 30 326 7.0 11.0 0.00 0.07 0.07 90 1021.1
20220117195542 31 338 7.0 11.0 0.00 0.07 0.07 90 1021.0
20220117195436 31 277 7.0 14.0 0.00 0.07 0.07 90 1020.9
20220117195409 31 301 8.0 14.0 0.00 0.07 0.07 90 1020.9
20220117195331 31 311 9.0 14.0 0.00 0.07 0.07 90 1021.0
20220117195225 31 308 9.0 14.0 0.00 0.07 0.07 90 1020.9
20220117195119 31 321 8.0 14.0 0.00 0.07 0.07 90 1021.7
20220117195013 31 303 6.0 14.0 0.00 0.07 0.07 90 1021.0
20220117194905 31 323 6.0 14.0 0.00 0.07 0.07 90 1021.0
20220117194800 31 280 8.0 14.0 0.00 0.07 0.07 90 1021.0
20220117194655 31 338 6.0 14.0 0.00 0.07 0.07 90 1020.7
20220117194548 31 315 9.0 17.0 0.00 0.07 0.07 90 1020.7
20220117194441 31 346 7.0 17.0 0.00 0.07 0.07 90 1020.7
20220117194352 31 271 7.0 17.0 0.00 0.07 0.07 90 1020.7
20220117194335 31 293 11.0 17.0 0.00 0.07 0.07 91 1020.7
20220117194231 31 318 6.0 17.0 0.00 0.07 0.07 91 1021.1
20220117194127 31 288 2.0 17.0 0.00 0.07 0.07 91 1020.8
20220117194018 31 303 4.0 17.0 0.00 0.07 0.07 91 1020.9
20220117193912 31 330 9.0 17.0 0.00 0.07 0.07 91 1020.9
20220117193846 31 309 9.0 17.0 0.00 0.07 0.07 91 1020.9
20220117193806 31 37 2.0 17.0 0.00 0.07 0.07 91 1020.9
20220117193701 31 9 9.0 17.0 0.00 0.07 0.07 91 1020.6
20220117193553 31 301 5.0 14.0 0.00 0.07 0.07 91 1020.8
20220117193447 31 323 5.0 14.0 0.00 0.07 0.07 91 1020.6
20220117193341 31 357 10.0 14.0 0.00 0.07 0.07 91 1020.5
20220117193237 31 327 8.0 11.0 0.00 0.07 0.07 91 1020.7
20220117193131 31 308 7.0 11.0 0.00 0.07 0.07 91 1020.5
20220117193023 31 332 6.0 11.0 0.00 0.07 0.07 91 1020.6
20220117192918 31 308 8.0 11.0 0.00 0.07 0.07 91 1020.6
20220117192829 31 337 7.0 11.0 0.00 0.07 0.07 91 1020.6
20220117192812 31 14 7.0 11.0 0.00 0.07 0.07 91 1020.6
20220117192706 31 316 6.0 13.0 0.00 0.07 0.07 91 1020.5
20220117192600 31 348 6.0 13.0 0.00 0.07 0.07 91 1020.5
20220117192454 31 317 5.0 14.0 0.00 0.07 0.07 90 1020.6
20220117192347 31 270 7.0 14.0 0.00 0.07 0.07 90 1020.5
20220117192320 31 317 8.0 14.0 0.00 0.07 0.07 90 1020.5
20220117192241 31 314 8.0 14.0 0.00 0.07 0.07 90 1020.5
20220117192136 31 314 8.0 14.0 0.00 0.07 0.07 90 1020.6
20220117192032 31 329 7.0 14.0 0.00 0.07 0.07 90 1020.3
20220117191924 31 290 7.0 14.0 0.00 0.07 0.07 90 1020.6
20220117191818 31 325 9.0 14.0 0.00 0.07 0.07 90 1020.6
20220117191711 31 284 4.0 14.0 0.00 0.07 0.07 90 1020.4
20220117191605 31 53 9.0 14.0 0.00 0.07 0.07 90 1020.4
20220117191500 31 301 11.0 14.0 0.00 0.07 0.07 90 1020.5
20220117191354 31 278 7.0 14.0 0.00 0.07 0.07 90 1020.3
20220117191304 31 278 7.0 14.0 0.00 0.07 0.07 90 1020.6
20220117191249 31 310 11.0 14.0 0.00 0.07 0.07 90 1020.9
20220117191142 31 304 4.0 14.0 0.00 0.07 0.07 90 1020.3
20220117191036 31 304 6.0 14.0 0.00 0.07 0.07 90 1020.4
20220117190930 31 294 9.0 14.0 0.00 0.07 0.07 90 1020.5
20220117190824 31 331 9.0 16.0 0.00 0.07 0.07 90 1020.3
20220117190758 31 334 5.0 16.0 0.00 0.07 0.07 90 1020.3
20220117190720 31 351 6.0 16.0 0.00 0.07 0.07 90 1020.6
20220117190613 31 281 4.0 16.0 0.00 0.07 0.07 90 1020.4
20220117190507 31 318 11.0 16.0 0.00 0.07 0.07 90 1020.4
20220117190400 31 19 7.0 16.0 0.00 0.07 0.07 90 1020.6
20220117190255 31 316 5.0 22.0 0.00 0.07 0.07 89 1021.0
20220117190150 31 306 6.0 22.0 0.00 0.07 0.07 89 1020.5
20220117190043 31 29 8.0 22.0 0.00 0.07 0.07 89 1020.4
20220117185935 31 303 8.0 22.0 0.00 0.07 0.07 89 1020.3
20220117185830 31 331 11.0 22.0 0.00 0.07 0.07 89 1020.4
20220117185741 31 290 12.0 22.0 0.00 0.07 0.07 89 1020.3
20220117185726 31 0 7.0 22.0 0.00 0.07 0.07 89 1020.3
20220117185620 31 282 11.0 22.0 0.00 0.07 0.07 89 1020.0
20220117185515 31 325 13.0 22.0 0.00 0.07 0.07 89 1020.3
20220117185407 31 342 8.0 22.0 0.00 0.07 0.07 89 1020.2
20220117185300 31 285 5.0 16.0 0.00 0.07 0.07 89 1020.3
20220117185232 31 285 5.0 16.0 0.00 0.07 0.07 89 1020.2
20220117185153 31 325 5.0 16.0 0.00 0.07 0.07 89 1020.2
20220117185049 31 316 6.0 16.0 0.00 0.07 0.07 89 1020.1
20220117184941 31 306 11.0 16.0 0.00 0.07 0.07 89 1020.4
20220117184837 31 357 9.0 16.0 0.00 0.07 0.07 90 1020.2
20220117184730 31 346 8.0 16.0 0.00 0.07 0.07 90 1020.2
20220117184624 31 320 4.0 16.0 0.00 0.07 0.07 90 1020.0
20220117184519 31 345 9.0 16.0 0.00 0.07 0.07 89 1019.9
20220117184411 31 343 13.0 16.0 0.00 0.07 0.07 89 1019.9
20220117184305 31 349 6.0 15.0 0.00 0.07 0.07 89 1020.1
20220117184217 31 327 6.0 15.0 0.00 0.07 0.07 89 1020.1
20220117184201 31 286 6.0 15.0 0.00 0.07 0.07 90 1020.1
20220117184056 31 285 9.0 15.0 0.00 0.07 0.07 90 1020.0
20220117183947 31 66 6.0 15.0 0.00 0.07 0.07 90 1020.0
20220117183843 31 313 10.0 15.0 0.00 0.07 0.07 90 1019.9
20220117183736 31 272 7.0 13.0 0.00 0.07 0.07 90 1019.8
20220117183708 31 308 8.0 13.0 0.00 0.07 0.07 90 1019.8
20220117183630 31 22 7.0 13.0 0.00 0.07 0.07 90 1020.0
20220117183523 31 321 7.0 13.0 0.00 0.07 0.07 90 1019.8
20220117183419 31 328 8.0 13.0 0.00 0.07 0.07 90 1019.9
20220117183312 31 32 9.0 14.0 0.00 0.07 0.07 90 1019.8
20220117183204 31 315 7.0 14.0 0.00 0.07 0.07 90 1019.9
20220117183100 32 224 6.0 14.0 0.00 0.07 0.07 90 1019.8
20220117182956 32 345 4.0 14.0 0.00 0.07 0.07 90 1019.7
20220117182848 32 315 8.0 14.0 0.00 0.07 0.07 90 1019.6
20220117182742 32 326 9.0 14.0 0.00 0.07 0.07 90 1019.6
20220117182654 32 341 9.0 14.0 0.00 0.07 0.07 90 1019.6
20220117182637 32 322 7.0 14.0 0.00 0.07 0.07 90 1019.9
20220117182530 32 320 6.0 18.0 0.00 0.07 0.07 90 1019.6
20220117182424 32 307 7.0 18.0 0.00 0.07 0.07 90 1019.3
20220117182318 32 345 6.0 18.0 0.00 0.07 0.07 90 1019.4
20220117182214 32 342 10.0 18.0 0.00 0.07 0.07 90 1019.4
20220117182145 32 311 8.0 18.0 0.00 0.07 0.07 90 1019.4
20220117182106 32 1 4.0 18.0 0.00 0.07 0.07 90 1019.4
20220117182000 32 302 11.0 18.0 0.00 0.07 0.07 90 1019.2
20220117181855 32 328 11.0 18.0 0.00 0.07 0.07 90 1019.3
20220117181751 32 16 4.0 18.0 0.00 0.07 0.07 90 1019.4
20220117181644 32 339 9.0 18.0 0.00 0.07 0.07 90 1019.4
20220117181536 32 294 8.0 15.0 0.00 0.07 0.07 90 1019.5
20220117181430 32 4 6.0 15.0 0.00 0.07 0.07 90 1019.2
20220117181324 32 39 5.0 15.0 0.00 0.07 0.07 90 1019.3
20220117181219 32 313 6.0 15.0 0.00 0.07 0.07 90 1019.1
20220117181130 32 313 6.0 15.0 0.00 0.07 0.07 90 1019.3
20220117181112 32 312 6.0 15.0 0.00 0.07 0.07 90 1019.3
20220117181007 32 316 10.0 19.0 0.00 0.07 0.07 90 1019.1
20220117180900 32 351 3.0 19.0 0.00 0.07 0.07 90 1019.2
20220117180754 32 17 7.0 19.0 0.00 0.07 0.07 90 1019.2
20220117180649 32 251 4.0 19.0 0.00 0.07 0.07 90 1019.1
20220117180621 32 60 2.0 19.0 0.00 0.07 0.07 90 1019.1
20220117180542 32 292 9.0 19.0 0.00 0.07 0.07 90 1019.1
20220117180438 32 264 8.0 19.0 0.00 0.07 0.07 89 1018.8
20220117180331 32 333 5.0 19.0 0.00 0.07 0.07 89 1019.0
20220117180227 32 25 6.0 19.0 0.00 0.07 0.07 89 1019.1
20220117180117 32 3 11.0 19.0 0.00 0.07 0.07 90 1018.9
20220117180013 32 221 14.0 21.0 0.00 0.07 0.07 89 1018.8
20220117175906 32 324 8.0 21.0 0.00 0.07 0.07 90 1018.7
20220117175759 32 336 5.0 21.0 0.00 0.07 0.07 90 1018.7
20220117175654 32 4 11.0 22.0 0.00 0.07 0.07 90 1018.7
20220117175605 32 303 8.0 22.0 0.00 0.07 0.07 90 1018.8
20220117175547 32 296 12.0 22.0 0.00 0.07 0.07 90 1018.8
20220117175441 32 304 10.0 22.0 0.00 0.07 0.07 90 1018.5
20220117175336 32 328 9.0 22.0 0.00 0.07 0.07 90 1018.3
20220117175229 32 321 9.0 22.0 0.00 0.07 0.07 89 1018.3
20220117175125 32 309 10.0 22.0 0.00 0.07 0.07 90 1018.7
20220117175057 32 295 6.0 23.0 0.00 0.07 0.07 90 1018.7
20220117175018 32 312 11.0 23.0 0.00 0.07 0.07 90 1018.1
20220117174912 32 295 6.0 23.0 0.00 0.07 0.07 89 1018.3
20220117174807 32 290 14.0 23.0 0.00 0.07 0.07 90 1018.0
20220117174659 32 325 9.0 23.0 0.00 0.07 0.07 91 1018.1
20220117174554 32 318 9.0 23.0 0.00 0.07 0.07 91 1018.2
20220117174449 32 250 7.0 23.0 0.00 0.07 0.07 90 1018.5
20220117174343 32 359 11.0 23.0 0.00 0.07 0.07 90 1018.2
20220117174237 32 318 8.0 23.0 0.00 0.07 0.07 90 1018.2
20220117174129 32 296 18.0 23.0 0.00 0.07 0.07 91 1018.0
20220117174040 32 308 11.0 19.0 0.00 0.07 0.07 91 1018.0
20220117174029 32 344 9.0 19.0 0.00 0.07 0.07 91 1018.2
20220117173917 32 262 9.0 19.0 0.00 0.07 0.07 91 1018.2
20220117173811 32 312 12.0 19.0 0.00 0.07 0.07 91 1018.1
20220117173707 32 342 6.0 19.0 0.00 0.07 0.07 91 1018.1
20220117173601 32 309 7.0 19.0 0.00 0.07 0.07 91 1018.1
20220117173534 32 34 4.0 19.0 0.00 0.07 0.07 91 1018.3
20220117173455 32 325 7.0 19.0 0.00 0.07 0.07 91 1018.3
20220117173348 32 234 8.0 19.0 0.00 0.07 0.07 91 1018.0
20220117173242 32 285 8.0 19.0 0.00 0.07 0.07 91 1017.9
20220117173137 32 317 16.0 19.0 0.00 0.07 0.07 92 1018.0
20220117173032 32 300 8.0 18.0 0.00 0.07 0.07 92 1017.9
20220117172925 32 21 10.0 18.0 0.00 0.07 0.07 92 1017.8
20220117172818 32 8 8.0 18.0 0.00 0.07 0.07 92 1017.9
20220117172714 32 285 8.0 18.0 0.00 0.07 0.07 92 1018.0
20220117172607 32 66 6.0 18.0 0.00 0.07 0.07 92 1018.0
20220117172517 32 336 6.0 23.0 0.00 0.07 0.07 92 1017.6
20220117172503 32 336 6.0 23.0 0.00 0.07 0.07 92 1017.6
20220117172354 32 305 10.0 23.0 0.00 0.07 0.07 92 1017.9
20220117172249 32 339 9.0 23.0 0.00 0.07 0.07 92 1017.8
20220117172142 32 293 13.0 23.0 0.00 0.07 0.07 93 1017.6
20220117172037 32 20 7.0 23.0 0.00 0.07 0.07 93 1017.7
20220117172013 32 325 11.0 23.0 0.00 0.07 0.07 93 1017.7
20220117171931 32 314 11.0 23.0 0.00 0.07 0.07 93 1017.6
20220117171824 32 301 5.0 23.0 0.00 0.07 0.07 93 1017.5
20220117171720 32 309 13.0 23.0 0.00 0.07 0.07 93 1017.6
20220117171613 32 312 16.0 23.0 0.00 0.07 0.07 93 1017.4
20220117171507 32 286 9.0 18.0 0.00 0.07 0.07 94 1017.4
20220117171401 32 73 4.0 18.0 0.00 0.07 0.07 93 1017.5
20220117171255 32 310 13.0 19.0 0.00 0.07 0.07 94 1017.4
20220117171149 32 321 9.0 19.0 0.00 0.07 0.07 94 1017.2
20220117171044 32 334 11.0 19.0 0.00 0.07 0.07 94 1017.4
20220117170953 32 329 7.0 19.0 0.00 0.07 0.07 94 1017.4
20220117170936 32 332 14.0 19.0 0.00 0.07 0.07 94 1017.2
20220117170833 32 294 14.0 19.0 0.00 0.07 0.07 95 1017.6
20220117170724 32 165 11.0 19.0 0.00 0.07 0.07 95 1017.0
20220117170618 32 287 13.0 19.0 0.00 0.07 0.07 95 1017.3
20220117170512 32 317 9.0 19.0 0.00 0.07 0.07 95 1017.1
20220117170446 32 320 15.0 19.0 0.00 0.07 0.07 95 1017.1
20220117170406 32 320 15.0 19.0 0.00 0.07 0.07 95 1017.1
20220117170300 32 309 8.0 19.0 0.00 0.07 0.07 95 1016.8
20220117170153 32 304 12.0 19.0 0.00 0.07 0.07 95 1017.2
20220117170047 32 301 11.0 19.0 0.00 0.07 0.07 95 1017.2
20220117165940 32 323 14.0 19.0 0.00 0.07 0.07 96 1017.0
20220117165835 32 325 14.0 19.0 0.00 0.07 0.07 96 1017.0
20220117165730 32 288 9.0 18.0 0.00 0.07 0.07 96 1017.1
20220117165623 32 308 15.0 18.0 0.00 0.07 0.07 96 1017.0
20220117165517 32 344 13.0 17.0 0.00 0.07 0.07 96 1017.0
20220117165430 32 282 10.0 17.0 0.00 0.07 0.07 96 1017.1
20220117165414 32 349 13.0 16.0 0.00 0.07 0.07 96 1017.1
20220117165306 32 334 6.0 16.0 0.00 0.07 0.07 96 1017.0
20220117165201 32 18 6.0 16.0 0.00 0.07 0.07 96 1017.0
20220117165056 32 309 12.0 16.0 0.00 0.07 0.07 96 1017.2
20220117164949 32 320 4.0 16.0 0.00 0.07 0.07 96 1017.2
20220117164923 32 352 4.0 16.0 0.00 0.07 0.07 96 1017.0
20220117164843 32 296 9.0 17.0 0.00 0.07 0.07 96 1017.0
20220117164738 32 315 7.0 17.0 0.00 0.07 0.07 96 1017.0
20220117164630 32 295 13.0 17.0 0.00 0.07 0.07 96 1016.7
20220117164524 32 333 8.0 17.0 0.00 0.07 0.07 96 1017.0
20220117164418 32 64 3.0 17.0 0.00 0.07 0.07 96 1016.9
20220117164300 32 305 10.0 17.0 0.00 0.07 0.07 96 1016.8
20220117164156 32 354 10.0 17.0 0.00 0.07 0.07 96 1016.9
20220117164051 32 306 9.0 17.0 0.00 0.07 0.07 96 1016.9
20220117163945 32 270 15.0 17.0 0.00 0.07 0.07 96 1016.9
20220117163904 32 314 10.0 17.0 0.00 0.07 0.07 96 1016.6
20220117163839 32 321 10.0 17.0 0.00 0.07 0.07 96 1016.5
20220117163733 32 341 10.0 17.0 0.00 0.07 0.07 96 1016.6
20220117163626 32 355 7.0 17.0 0.00 0.07 0.07 96 1016.7
20220117163519 32 333 13.0 17.0 0.00 0.07 0.07 96 1016.4
20220117163412 32 311 8.0 15.0 0.00 0.07 0.07 96 1016.7
20220117163359 32 270 12.0 15.0 0.00 0.07 0.07 96 1016.7
20220117163307 32 278 7.0 15.0 0.00 0.07 0.07 96 1016.5
20220117163200 32 319 5.0 15.0 0.00 0.07 0.07 96 1016.2
20220117163056 32 240 6.0 15.0 0.00 0.07 0.07 96 1016.5
20220117162949 32 309 8.0 15.0 0.00 0.07 0.07 96 1016.4
20220117162844 32 330 8.0 15.0 0.00 0.07 0.07 96 1016.4
20220117162738 32 263 6.0 15.0 0.00 0.07 0.07 96 1016.4
20220117162632 32 356 6.0 15.0 0.00 0.07 0.07 96 1016.4
20220117162525 32 278 9.0 15.0 0.00 0.07 0.07 96 1016.4
20220117162419 32 282 8.0 15.0 0.00 0.07 0.07 96 1016.3
20220117162341 32 5 13.0 15.0 0.00 0.07 0.07 96 1016.3
20220117162315 32 310 9.0 15.0 0.00 0.07 0.07 96 1016.4
20220117162207 32 267 8.0 15.0 0.00 0.07 0.07 96 1016.2
20220117162102 32 305 8.0 15.0 0.00 0.07 0.07 96 1016.3
20220117161956 32 285 13.0 15.0 0.00 0.07 0.07 96 1016.4
20220117161848 32 308 8.0 13.0 0.00 0.07 0.07 96 1016.1
20220117161833 32 312 8.0 13.0 0.00 0.07 0.07 96 1016.3
20220117161742 32 331 8.0 14.0 0.00 0.07 0.07 96 1016.2
20220117161636 32 309 6.0 14.0 0.00 0.07 0.07 96 1016.1
20220117161531 32 301 7.0 14.0 0.00 0.07 0.07 96 1016.1
20220117161424 32 313 4.0 14.0 0.00 0.07 0.07 96 1016.2
20220117161317 32 355 9.0 14.0 0.00 0.07 0.07 96 1016.2
20220117161215 32 291 6.0 14.0 0.00 0.07 0.07 96 1016.3
20220117161108 32 325 7.0 14.0 0.00 0.07 0.07 96 1016.1
20220117161002 32 299 6.0 14.0 0.00 0.07 0.07 96 1016.3
20220117160857 32 306 8.0 14.0 0.00 0.07 0.07 96 1016.1
20220117160805 32 338 10.0 14.0 0.00 0.07 0.07 96 1015.9
20220117160748 32 265 8.0 14.0 0.00 0.07 0.07 96 1015.9
20220117160644 32 319 5.0 14.0 0.00 0.07 0.07 96 1016.0
20220117160537 32 333 5.0 14.0 0.00 0.07 0.07 96 1015.9
20220117160431 32 298 9.0 14.0 0.00 0.07 0.07 96 1016.0
20220117160325 32 300 9.0 14.0 0.00 0.07 0.07 96 1015.8
20220117160259 32 329 10.0 14.0 0.00 0.07 0.07 96 1015.8
20220117160220 32 9 5.0 11.0 0.00 0.07 0.07 96 1015.8
20220117160113 32 356 3.0 11.0 0.00 0.07 0.07 96 1015.8
20220117160012 32 307 9.0 10.0 0.00 0.07 0.07 96 1015.9
20220117155902 32 318 8.0 15.0 0.00 0.07 0.07 96 1015.8
20220117155755 32 281 5.0 15.0 0.00 0.07 0.07 96 1015.8
20220117155649 32 290 7.0 15.0 0.00 0.07 0.07 96 1015.8
20220117155544 32 33 5.0 15.0 0.00 0.07 0.07 96 1015.8
20220117155437 32 323 5.0 15.0 0.00 0.07 0.07 96 1015.7
20220117155331 32 36 7.0 15.0 0.00 0.07 0.07 96 1015.7
20220117155243 32 333 2.0 15.0 0.00 0.07 0.07 96 1015.7
20220117155225 32 9 7.0 15.0 0.00 0.07 0.07 96 1015.7
20220117155117 32 327 3.0 15.0 0.00 0.07 0.07 96 1015.5
20220117155012 32 338 8.0 15.0 0.00 0.07 0.07 96 1015.5
20220117154906 32 315 8.0 13.0 0.00 0.07 0.07 96 1015.6
20220117154800 32 357 4.0 13.0 0.00 0.07 0.07 96 1015.4
20220117154734 32 353 9.0 13.0 0.00 0.07 0.07 96 1015.5
20220117154656 32 324 3.0 13.0 0.00 0.07 0.07 96 1015.5
20220117154550 32 271 4.0 13.0 0.00 0.07 0.07 96 1015.6
20220117154444 32 21 5.0 13.0 0.00 0.07 0.07 95 1015.5
20220117154338 32 18 11.0 13.0 0.00 0.07 0.07 95 1015.2
20220117154230 31 314 8.0 13.0 0.00 0.07 0.07 95 1015.6
20220117154126 31 269 3.0 13.0 0.00 0.07 0.07 95 1015.5
20220117154021 31 310 6.0 13.0 0.00 0.07 0.07 95 1015.6
20220117153914 31 44 5.0 13.0 0.00 0.07 0.07 95 1015.5
20220117153756 31 292 4.0 13.0 0.00 0.07 0.07 95 1015.2
20220117153719 31 329 6.0 13.0 0.00 0.07 0.07 95 1015.5
20220117153650 31 311 6.0 13.0 0.00 0.07 0.07 95 1015.5
20220117153543 31 295 11.0 13.0 0.00 0.07 0.07 95 1015.2
20220117153438 31 338 5.0 11.0 0.00 0.07 0.07 95 1015.1
20220117153331 31 290 5.0 11.0 0.00 0.07 0.07 95 1015.1
20220117153211 31 296 10.0 11.0 0.00 0.07 0.07 95 1015.1
20220117153119 31 300 4.0 11.0 0.00 0.07 0.07 95 1015.2
20220117153015 31 345 4.0 11.0 0.00 0.07 0.07 95 1015.1
20220117152910 31 272 5.0 11.0 0.00 0.07 0.07 95 1015.0
20220117152751 31 288 8.0 11.0 0.00 0.07 0.07 95 1015.0
20220117152701 31 304 8.0 11.0 0.00 0.07 0.07 95 1015.0
20220117152646 31 334 8.0 11.0 0.00 0.07 0.07 95 1014.8
20220117152540 31 302 3.0 11.0 0.00 0.07 0.07 95 1015.0
20220117152433 31 12 5.0 11.0 0.00 0.07 0.07 95 1014.9
20220117152327 31 336 5.0 14.0 0.00 0.07 0.07 95 1014.9
20220117152223 31 314 8.0 14.0 0.00 0.07 0.07 95 1014.8
20220117152155 31 302 7.0 14.0 0.00 0.07 0.07 95 1014.8
20220117152115 31 293 6.0 14.0 0.00 0.07 0.07 95 1014.7
20220117152009 31 303 7.0 14.0 0.00 0.07 0.07 95 1014.8
20220117151903 31 257 4.0 14.0 0.00 0.07 0.07 95 1014.7
20220117151748 31 268 7.0 14.0 0.00 0.07 0.07 95 1014.7
20220117151643 31 332 6.0 15.0 0.00 0.07 0.07 95 1014.7
20220117151534 31 286 5.0 15.0 0.00 0.07 0.07 95 1014.7
20220117151429 31 272 7.0 15.0 0.00 0.07 0.07 96 1014.7
20220117151300 31 311 5.0 15.0 0.00 0.07 0.07 96 1014.8
20220117151154 31 275 8.0 15.0 0.00 0.07 0.07 96 1014.6
20220117151138 31 274 9.0 15.0 0.00 0.07 0.07 96 1014.8
20220117151048 31 292 8.0 15.0 0.00 0.07 0.07 96 1014.8
20220117150942 31 318 6.0 15.0 0.00 0.07 0.07 96 1014.7
20220117150826 31 52 3.0 15.0 0.00 0.07 0.07 96 1014.7
20220117150721 31 335 11.0 15.0 0.00 0.07 0.07 96 1014.7
20220117150630 31 297 8.0 14.0 0.00 0.07 0.07 96 1014.7
20220117150613 31 315 7.0 14.0 0.00 0.07 0.07 96 1014.7
20220117150508 31 316 4.0 14.0 0.00 0.07 0.07 96 1014.5
20220117150403 31 278 4.0 14.0 0.00 0.07 0.07 96 1014.7
20220117150256 31 323 7.0 14.0 0.00 0.07 0.07 96 1014.2
20220117150150 31 76 6.0 14.0 0.00 0.07 0.07 96 1014.6
20220117150122 31 291 7.0 14.0 0.00 0.07 0.07 96 1014.3
20220117150050 31 298 9.0 14.0 0.00 0.07 0.07 96 1014.1
20220117145937 31 300 7.0 10.0 0.00 0.07 0.07 96 1014.3
20220117145831 31 40 6.0 10.0 0.00 0.07 0.07 96 1014.0
20220117145725 31 256 7.0 10.0 0.00 0.07 0.07 96 1014.1
20220117145618 31 286 7.0 10.0 0.00 0.07 0.07 96 1013.8
20220117145513 31 51 4.0 10.0 0.00 0.07 0.07 96 1013.8
20220117145408 31 298 6.0 10.0 0.00 0.07 0.07 96 1013.8
20220117145301 31 311 4.0 11.0 0.00 0.07 0.07 96 1013.6
20220117145155 31 344 4.0 11.0 0.00 0.07 0.07 96 1013.5
20220117145107 31 305 5.0 11.0 0.00 0.07 0.07 96 1013.5
20220117145050 31 253 5.0 11.0 0.00 0.07 0.07 96 1013.5
20220117144942 31 230 6.0 11.0 0.00 0.07 0.07 97 1013.5
20220117144839 31 309 7.0 11.0 0.00 0.07 0.07 97 1013.5
20220117144732 31 259 3.0 11.0 0.00 0.07 0.07 97 1013.7
20220117144626 31 322 4.0 11.0 0.00 0.07 0.07 97 1013.8
20220117144558 31 322 4.0 11.0 0.00 0.07 0.07 97 1013.8
20220117144521 31 298 4.0 11.0 0.00 0.07 0.07 97 1013.6
20220117144413 31 297 7.0 11.0 0.00 0.07 0.07 97 1013.6
20220117144308 31 328 9.0 11.0 0.00 0.07 0.07 97 1013.5
20220117144202 31 292 9.0 10.0 0.00 0.07 0.07 98 1013.4
20220117144056 31 355 3.0 10.0 0.00 0.07 0.07 98 1013.5
20220117143950 31 349 7.0 10.0 0.00 0.07 0.07 98 1013.5
20220117143843 31 320 7.0 15.0 0.00 0.07 0.07 98 1013.5
20220117143737 31 105 4.0 15.0 0.00 0.07 0.07 98 1013.5
20220117143632 31 305 5.0 15.0 0.00 0.07 0.07 98 1013.4
20220117143542 31 343 6.0 15.0 0.00 0.07 0.07 98 1013.5
20220117143526 31 343 6.0 15.0 0.00 0.07 0.07 99 1013.5
20220117143420 31 260 8.0 15.0 0.00 0.07 0.07 99 1013.3
20220117143313 31 281 5.0 15.0 0.00 0.07 0.07 99 1013.2
20220117143209 31 290 7.0 15.0 0.00 0.07 0.07 99 1013.2
20220117143101 31 357 6.0 15.0 0.00 0.07 0.07 99 1013.1
20220117143036 31 279 5.0 15.0 0.00 0.07 0.07 99 1013.1
20220117142957 31 240 4.0 15.0 0.00 0.07 0.07 99 1013.1
20220117142850 31 302 6.0 13.0 0.00 0.07 0.07 99 1013.1
20220117142744 31 342 8.0 11.0 0.00 0.07 0.07 99 1012.9
20220117142638 31 298 9.0 11.0 0.00 0.07 0.07 99 1013.0
20220117142530 31 286 9.0 11.0 0.00 0.07 0.07 99 1013.0
20220117142426 31 316 5.0 11.0 0.00 0.07 0.07 99 1012.9
20220117142320 31 288 6.0 11.0 0.00 0.07 0.07 100 1013.0
20220117142213 31 36 5.0 11.0 0.00 0.07 0.07 100 1013.0
20220117142107 31 279 6.0 11.0 0.00 0.07 0.07 100 1013.2
20220117142019 31 7 7.0 11.0 0.00 0.07 0.07 100 1013.1
20220117142001 31 323 7.0 11.0 0.00 0.07 0.07 100 1013.1
20220117141854 31 295 3.0 11.0 0.00 0.07 0.07 100 1013.1
20220117141750 31 337 6.0 11.0 0.00 0.07 0.07 100 1013.3
20220117141644 31 305 5.0 11.0 0.00 0.07 0.07 100 1013.3
20220117141539 31 291 9.0 11.0 0.00 0.07 0.07 100 1013.3
20220117141511 31 16 4.0 11.0 0.00 0.07 0.07 100 1013.0
20220117141432 31 288 6.0 11.0 0.00 0.07 0.07 100 1013.0
20220117141324 30 291 9.0 13.0 0.00 0.07 0.07 100 1013.0
20220117141220 30 277 6.0 13.0 0.00 0.07 0.07 100 1012.9
20220117141113 30 301 6.0 13.0 0.00 0.07 0.07 100 1013.2
20220117141005 30 299 6.0 13.0 0.00 0.07 0.07 100 1012.9
20220117140900 30 282 7.0 13.0 0.00 0.07 0.07 100 1013.0
20220117140754 30 279 6.0 13.0 0.00 0.07 0.07 100 1013.0
20220117140648 30 330 7.0 13.0 0.00 0.07 0.07 100 1013.0
20220117140543 30 274 4.0 13.0 0.00 0.07 0.07 100 1013.0
20220117140453 30 258 5.0 13.0 0.00 0.07 0.07 100 1013.0
20220117140438 30 303 3.0 19.0 0.00 0.07 0.07 100 1013.0
20220117140332 30 284 4.0 19.0 0.00 0.07 0.07 100 1012.9
20220117140225 30 267 5.0 19.0 0.00 0.07 0.07 100 1012.7
20220117140120 30 289 9.0 19.0 0.00 0.07 0.07 100 1012.7
20220117140027 30 321 6.0 19.0 0.00 0.07 0.07 100 1012.7
20220117135947 30 321 6.0 19.0 0.00 0.07 0.07 100 1012.7
20220117135907 30 318 7.0 19.0 0.00 0.07 0.07 100 1012.4
20220117135802 30 311 9.0 19.0 0.00 0.07 0.07 100 1012.5
20220117135655 30 311 6.0 19.0 0.00 0.07 0.07 100 1012.3
20220117135549 30 53 5.0 19.0 0.00 0.07 0.07 100 1012.3
20220117135443 30 359 9.0 17.0 0.00 0.07 0.07 100 1012.2
20220117135337 30 346 9.0 17.0 0.00 0.07 0.07 100 1012.2
20220117135230 30 283 4.0 17.0 0.00 0.07 0.07 100 1012.3
20220117135125 30 304 3.0 17.0 0.00 0.07 0.07 100 1012.4
20220117135018 31 310 12.0 17.0 0.00 0.07 0.07 100 1012.3
20220117134915 31 243 10.0 21.0 0.00 0.07 0.07 100 1012.2
20220117134806 31 272 6.0 21.0 0.00 0.07 0.07 100 1012.1
20220117134702 31 306 11.0 21.0 0.00 0.07 0.07 100 1011.9
20220117134556 31 337 12.0 21.0 0.00 0.07 0.07 100 1011.8
20220117134451 31 283 12.0 21.0 0.00 0.07 0.07 100 1012.0
20220117134422 31 283 12.0 21.0 0.00 0.07 0.07 100 1011.9
20220117134344 31 66 5.0 21.0 0.00 0.07 0.07 100 1011.9
20220117134237 31 259 8.0 21.0 0.00 0.07 0.07 100 1012.1
20220117134131 31 3 5.0 21.0 0.00 0.07 0.07 100 1012.1
20220117134026 31 330 15.0 21.0 0.00 0.07 0.07 100 1012.0
20220117133919 31 354 8.0 13.0 0.00 0.07 0.07 100 1012.2
20220117133904 31 306 9.0 13.0 0.00 0.07 0.07 100 1012.2
20220117133812 31 321 4.0 13.0 0.00 0.07 0.07 100 1012.1
20220117133706 31 355 3.0 13.0 0.00 0.07 0.07 100 1012.1
20220117133602 31 306 5.0 13.0 0.00 0.07 0.07 100 1011.9
20220117133456 31 277 6.0 13.0 0.00 0.07 0.07 100 1011.8
20220117133348 31 337 9.0 13.0 0.00 0.07 0.07 100 1011.9
20220117133244 31 326 5.0 13.0 0.00 0.07 0.07 100 1012.0
20220117133136 31 211 8.0 13.0 0.00 0.07 0.07 100 1011.6
20220117133031 31 349 3.0 13.0 0.00 0.07 0.07 100 1011.8
20220117132925 31 310 6.0 13.0 0.00 0.07 0.07 100 1011.7
20220117132848 31 282 7.0 13.0 0.00 0.07 0.07 100 1011.7
20220117132820 31 28 5.0 13.0 0.00 0.07 0.07 100 1011.7
20220117132714 31 282 11.0 13.0 0.00 0.07 0.07 100 1011.6
20220117132557 31 295 4.0 10.0 0.00 0.07 0.07 100 1011.6
20220117132450 31 308 7.0 10.0 0.00 0.07 0.07 100 1011.9
20220117132342 31 323 4.0 13.0 0.00 0.07 0.07 100 1011.6
20220117132239 31 353 6.0 13.0 0.00 0.07 0.07 100 1011.7
20220117132131 31 310 6.0 13.0 0.00 0.07 0.07 100 1011.7
20220117132028 31 311 4.0 13.0 0.00 0.07 0.07 100 1011.5
20220117131921 31 305 6.0 13.0 0.00 0.07 0.07 100 1011.4
20220117131815 31 329 2.0 13.0 0.00 0.07 0.07 100 1011.7
20220117131708 31 319 5.0 13.0 0.00 0.07 0.07 100 1011.7
20220117131602 31 23 4.0 13.0 0.00 0.07 0.07 100 1011.7
20220117131456 31 330 6.0 13.0 0.00 0.07 0.07 100 1011.7
20220117131349 31 11 5.0 10.0 0.00 0.07 0.07 100 1011.6
20220117131323 31 11 5.0 10.0 0.00 0.07 0.07 100 1011.5
20220117131243 31 26 5.0 10.0 0.00 0.07 0.07 100 1011.5
20220117131141 31 278 4.0 10.0 0.00 0.07 0.07 100 1011.4
20220117131032 31 317 3.0 10.0 0.00 0.07 0.07 100 1011.4
20220117130929 31 286 8.0 10.0 0.00 0.07 0.07 100 1011.5
20220117130821 31 37 5.0 9.0 0.00 0.07 0.07 100 1011.6
20220117130714 31 346 6.0 9.0 0.00 0.07 0.07 100 1011.2
20220117130608 31 53 4.0 9.0 0.00 0.07 0.07 100 1011.1
20220117130503 31 248 6.0 9.0 0.01 0.07 0.07 100 1010.9
20220117130357 31 18 5.0 10.0 0.01 0.07 0.07 100 1010.7
20220117130307 31 303 7.0 10.0 0.01 0.07 0.07 100 1010.6
20220117130252 31 303 7.0 10.0 0.01 0.07 0.07 100 1010.6
20220117130145 31 281 6.0 10.0 0.01 0.07 0.07 100 1011.1
20220117130037 31 324 5.0 10.0 0.01 0.07 0.07 100 1010.9
20220117125931 31 5 4.0 10.0 0.01 0.07 0.07 100 1010.8
20220117125827 31 324 4.0 10.0 0.01 0.07 0.07 100 1010.6
20220117125758 31 324 4.0 10.0 0.01 0.07 0.07 100 1010.6
20220117125720 31 4 4.0 10.0 0.01 0.07 0.07 100 1010.9
20220117125614 31 320 5.0 17.0 0.01 0.07 0.07 100 1010.8
20220117125508 31 299 8.0 17.0 0.01 0.07 0.07 100 1010.8
20220117125402 31 344 7.0 17.0 0.01 0.07 0.07 100 1011.1
20220117125255 31 8 6.0 17.0 0.01 0.07 0.07 100 1011.0
20220117125152 31 312 8.0 17.0 0.01 0.07 0.07 100 1011.0
20220117125044 31 332 6.0 17.0 0.01 0.07 0.07 100 1011.0
20220117124939 31 285 6.0 17.0 0.01 0.07 0.07 100 1011.3
20220117124833 31 5 5.0 17.0 0.01 0.07 0.07 100 1011.1
20220117124744 32 301 13.0 17.0 0.01 0.07 0.07 100 1011.1
20220117124727 32 301 13.0 17.0 0.01 0.07 0.07 100 1011.3
20220117124621 32 353 8.0 13.0 0.01 0.07 0.07 100 1011.5
20220117124516 32 308 6.0 13.0 0.01 0.07 0.07 100 1011.4
20220117124409 32 14 7.0 13.0 0.01 0.07 0.07 100 1011.4
20220117124303 32 101 2.0 13.0 0.01 0.07 0.07 100 1011.3
20220117124236 32 53 4.0 13.0 0.01 0.07 0.07 100 1011.3
20220117124158 32 318 6.0 13.0 0.01 0.07 0.07 100 1011.3
20220117124050 32 46 0.0 10.0 0.01 0.07 0.07 100 1011.1
20220117123945 32 124 3.0 13.0 0.01 0.07 0.07 100 1011.2
20220117123839 32 301 5.0 13.0 0.01 0.07 0.07 100 1011.2
20220117123732 32 310 5.0 13.0 0.01 0.07 0.07 100 1011.2
20220117123629 32 340 6.0 13.0 0.01 0.07 0.07 100 1011.2
20220117123522 32 310 3.0 13.0 0.01 0.07 0.07 100 1011.3
20220117123414 32 12 2.0 13.0 0.01 0.07 0.07 100 1010.9
20220117123310 32 351 6.0 13.0 0.01 0.07 0.07 100 1010.9
20220117123219 32 342 3.0 13.0 0.01 0.07 0.07 100 1011.0
20220117123201 32 343 6.0 13.0 0.01 0.07 0.07 100 1011.0
20220117123056 32 337 8.0 14.0 0.01 0.07 0.07 100 1010.7
20220117122949 32 38 7.0 14.0 0.01 0.07 0.07 100 1010.7
20220117122843 32 44 4.0 14.0 0.01 0.07 0.07 100 1010.8
20220117122737 32 71 4.0 14.0 0.01 0.07 0.07 100 1010.9
20220117122710 32 324 2.0 15.0 0.01 0.07 0.07 100 1010.9
20220117122631 32 302 3.0 15.0 0.01 0.07 0.07 100 1010.6
20220117122527 32 29 3.0 22.0 0.01 0.07 0.07 99 1010.7
20220117122420 32 342 9.0 22.0 0.01 0.07 0.07 99 1010.9
20220117122313 32 16 6.0 22.0 0.01 0.07 0.07 99 1010.8
20220117122208 32 353 11.0 22.0 0.01 0.07 0.07 99 1010.9
20220117122103 32 35 8.0 22.0 0.01 0.07 0.07 99 1010.7
20220117121956 32 294 11.0 22.0 0.01 0.07 0.07 99 1010.7
20220117121852 32 354 9.0 24.0 0.01 0.07 0.07 98 1010.9
20220117121744 33 357 9.0 24.0 0.01 0.07 0.07 98 1010.6
20220117121656 33 349 9.0 24.0 0.01 0.07 0.07 98 1010.6
20220117121639 33 349 9.0 27.0 0.01 0.07 0.07 97 1010.5
20220117121534 33 302 10.0 27.0 0.01 0.07 0.07 97 1010.8
20220117121428 35 61 12.0 27.0 0.01 0.07 0.07 95 1010.6
20220117121308 37 359 15.0 27.0 0.02 0.07 0.07 94 1010.5
20220117121149 37 29 9.0 27.0 0.02 0.07 0.07 95 1010.2
20220117121056 37 325 9.0 27.0 0.02 0.07 0.07 95 1009.8
20220117120847 37 8 11.0 29.0 0.02 0.07 0.07 95 1008.2
20220117120739 37 286 22.0 29.0 0.02 0.07 0.07 95 1008.2
20220117120640 37 243 15.0 29.0 0.02 0.07 0.07 95 1007.9
20220117120634 37 243 15.0 29.0 0.02 0.07 0.07 95 1007.6
20220117120516 37 279 23.0 29.0 0.01 0.06 0.06 95 1007.4
20220117120411 37 288 12.0 33.0 0.01 0.06 0.06 95 1007.6
20220117120305 37 256 15.0 33.0 0.01 0.06 0.06 95 1007.7
20220117120158 37 305 15.0 33.0 0.01 0.06 0.06 95 1007.7
20220117120132 37 306 17.0 33.0 0.01 0.06 0.06 95 1007.5
20220117120054 37 305 20.0 33.0 0.01 0.06 0.06 95 1007.5
20220117115948 37 317 12.0 33.0 0.01 0.06 0.06 95 1007.3
20220117115840 37 273 14.0 33.0 0.02 0.06 0.06 95 1007.5
20220117115737 37 273 22.0 33.0 0.02 0.06 0.06 94 1007.6
20220117115629 37 287 12.0 33.0 0.02 0.06 0.06 94 1007.5
20220117115522 37 282 24.0 33.0 0.02 0.06 0.06 94 1007.6
20220117115422 37 8 7.0 38.0 0.02 0.06 0.06 94 1007.8
20220117115311 38 288 20.0 38.0 0.02 0.06 0.06 94 1007.0
20220117115204 38 263 14.0 38.0 0.02 0.06 0.06 94 1007.2
20220117115116 38 340 6.0 38.0 0.02 0.06 0.06 94 1007.6
20220117115100 38 269 11.0 38.0 0.02 0.06 0.06 94 1007.6
20220117114952 38 272 19.0 38.0 0.02 0.06 0.06 94 1007.4
20220117114847 38 272 18.0 38.0 0.02 0.06 0.06 94 1007.3
20220117114740 38 303 14.0 38.0 0.02 0.06 0.06 94 1007.4
20220117114635 38 268 22.0 38.0 0.02 0.06 0.06 94 1007.5
20220117114529 38 289 22.0 38.0 0.02 0.06 0.06 94 1006.9
20220117114423 38 273 20.0 34.0 0.02 0.06 0.06 94 1007.6
20220117114317 38 279 16.0 29.0 0.02 0.06 0.06 94 1007.4
20220117114212 38 250 10.0 29.0 0.02 0.06 0.06 94 1007.5
20220117114103 38 272 14.0 29.0 0.02 0.06 0.06 94 1007.9
20220117113958 38 311 15.0 29.0 0.02 0.06 0.06 94 1007.5
20220117113852 38 301 17.0 29.0 0.02 0.06 0.06 94 1007.4
20220117113747 38 286 22.0 29.0 0.02 0.06 0.06 94 1007.8
20220117113641 38 340 13.0 29.0 0.02 0.06 0.06 94 1007.8
20220117113551 38 290 17.0 29.0 0.02 0.06 0.06 94 1007.8
20220117113534 38 328 13.0 35.0 0.02 0.06 0.06 94 1008.0
20220117113428 38 247 13.0 35.0 0.02 0.06 0.06 94 1007.9
20220117113323 38 263 13.0 35.0 0.02 0.06 0.06 94 1007.9
20220117113217 38 242 17.0 35.0 0.02 0.06 0.06 94 1007.7
20220117113111 38 306 19.0 35.0 0.02 0.06 0.06 94 1007.6
20220117113045 38 206 9.0 35.0 0.02 0.06 0.06 94 1007.6
20220117113006 38 249 15.0 35.0 0.02 0.06 0.06 94 1007.8
20220117112900 38 328 11.0 36.0 0.02 0.06 0.06 94 1008.0
20220117112753 38 330 10.0 36.0 0.02 0.06 0.06 94 1007.8
20220117112648 38 292 17.0 36.0 0.02 0.06 0.06 94 1007.7
20220117112539 38 288 26.0 36.0 0.02 0.06 0.06 94 1007.7
20220117112434 38 260 15.0 36.0 0.02 0.06 0.06 94 1007.9
20220117112329 38 320 11.0 36.0 0.02 0.06 0.06 93 1007.9
20220117112222 37 11 18.0 36.0 0.02 0.06 0.06 93 1007.9
20220117112117 37 270 12.0 36.0 0.02 0.06 0.06 93 1007.9
20220117112028 37 35 18.0 36.0 0.02 0.06 0.06 93 1007.4
20220117112010 37 35 18.0 36.0 0.02 0.06 0.06 94 1007.4
20220117111905 37 278 12.0 25.0 0.02 0.06 0.06 94 1007.8
20220117111759 37 326 19.0 25.0 0.02 0.06 0.06 94 1007.6
20220117111653 37 314 12.0 25.0 0.02 0.06 0.06 94 1008.0
20220117111519 37 314 16.0 29.0 0.02 0.06 0.06 94 1008.1
20220117111440 37 295 4.0 29.0 0.02 0.06 0.06 94 1008.1
20220117111336 37 281 7.0 29.0 0.01 0.05 0.05 94 1007.7
20220117111228 37 281 7.0 36.0 0.01 0.05 0.05 93 1008.3
20220117111122 38 25 13.0 36.0 0.01 0.05 0.05 93 1008.1
20220117111017 38 343 7.0 36.0 0.01 0.05 0.05 93 1008.0
20220117110911 38 324 11.0 36.0 0.01 0.05 0.05 93 1008.0
20220117110805 38 320 16.0 36.0 0.01 0.05 0.05 93 1007.9
20220117110659 38 296 23.0 36.0 0.01 0.05 0.05 93 1007.7
20220117110554 38 298 16.0 36.0 0.01 0.05 0.05 92 1007.7
20220117110504 38 295 9.0 36.0 0.01 0.05 0.05 92 1007.8
20220117110446 38 314 16.0 36.0 0.01 0.05 0.05 92 1007.9
20220117110340 38 292 23.0 36.0 0.01 0.05 0.05 92 1007.9
20220117110234 38 258 18.0 27.0 0.01 0.05 0.05 92 1007.7
20220117110130 38 246 18.0 35.0 0.01 0.05 0.05 92 1008.0
20220117110022 38 280 14.0 35.0 0.01 0.05 0.05 92 1008.1
20220117105955 38 284 15.0 35.0 0.01 0.05 0.05 92 1008.1
20220117105918 38 302 18.0 35.0 0.00 0.04 0.04 92 1008.3
20220117105812 38 274 16.0 35.0 0.00 0.04 0.04 92 1007.9
20220117105705 38 287 16.0 35.0 0.00 0.04 0.04 92 1008.1
20220117105600 38 334 15.0 35.0 0.00 0.04 0.04 92 1008.0
20220117105452 38 305 16.0 35.0 0.00 0.04 0.04 91 1007.6
20220117105351 38 247 17.0 35.0 0.00 0.04 0.04 91 1007.8
20220117105241 38 304 19.0 35.0 0.00 0.04 0.04 91 1007.9
20220117105136 38 254 14.0 32.0 0.00 0.04 0.04 92 1008.1
20220117105028 38 284 17.0 32.0 0.00 0.04 0.04 91 1007.7
20220117104940 38 271 15.0 32.0 0.00 0.04 0.04 91 1008.1
20220117104912 38 3 13.0 32.0 0.00 0.04 0.04 91 1008.1
20220117104806 38 264 22.0 32.0 0.00 0.04 0.04 91 1007.7
20220117104700 38 285 17.0 31.0 0.00 0.04 0.04 91 1007.8
20220117104448 38 286 24.0 31.0 0.00 0.04 0.04 91 1007.7
20220117104430 38 294 19.0 30.0 0.00 0.04 0.04 91 1007.6
20220117104343 38 275 23.0 30.0 0.00 0.04 0.04 91 1007.7
20220117104237 38 304 14.0 33.0 0.00 0.04 0.04 92 1007.7
20220117104130 38 2 11.0 33.0 0.00 0.04 0.04 92 1008.1
20220117104024 38 296 8.0 35.0 0.00 0.04 0.04 92 1008.3
20220117103924 38 296 8.0 35.0 0.00 0.04 0.04 92 1008.4
20220117103907 38 273 13.0 35.0 0.00 0.04 0.04 92 1008.4
20220117103800 38 268 15.0 35.0 0.00 0.04 0.04 91 1008.3
20220117103655 38 313 16.0 35.0 0.00 0.04 0.04 92 1008.2
20220117103549 38 271 23.0 35.0 0.00 0.04 0.04 92 1008.3
20220117103443 38 332 11.0 35.0 0.00 0.04 0.04 92 1008.4
20220117103403 38 286 16.0 35.0 0.00 0.04 0.04 92 1008.3
20220117103337 38 282 30.0 35.0 0.00 0.04 0.04 91 1008.5
20220117103231 38 262 14.0 35.0 0.00 0.04 0.04 91 1008.3
20220117103126 38 287 20.0 35.0 0.00 0.04 0.04 91 1008.3
20220117103018 38 278 13.0 32.0 0.00 0.04 0.04 91 1008.6
20220117102913 38 300 21.0 34.0 0.00 0.04 0.04 91 1008.0
20220117102855 38 300 21.0 34.0 0.00 0.04 0.04 91 1008.0
20220117102806 38 320 14.0 34.0 0.00 0.04 0.04 91 1008.7
20220117102702 38 300 12.0 34.0 0.00 0.04 0.04 90 1008.8
20220117102556 38 300 19.0 34.0 0.00 0.04 0.04 90 1008.3
20220117102449 38 306 17.0 34.0 0.00 0.04 0.04 90 1008.4
20220117102347 38 264 15.0 34.0 0.00 0.04 0.04 89 1008.5
20220117102342 38 264 15.0 34.0 0.00 0.04 0.04 89 1008.5
20220117102237 38 292 27.0 34.0 0.00 0.04 0.04 89 1008.6
20220117102132 38 249 13.0 34.0 0.00 0.04 0.04 89 1008.5
20220117102025 38 284 21.0 34.0 0.00 0.04 0.04 88 1008.1
20220117101920 38 307 24.0 31.0 0.00 0.04 0.04 88 1008.5
20220117101839 39 272 21.0 27.0 0.00 0.04 0.04 88 1008.5
20220117101812 39 295 17.0 27.0 0.00 0.04 0.04 88 1008.7
20220117101706 39 268 16.0 27.0 0.00 0.04 0.04 88 1008.2
20220117101601 39 286 18.0 27.0 0.00 0.04 0.04 88 1008.4
20220117101455 39 321 18.0 33.0 0.00 0.04 0.04 89 1008.4
20220117101333 39 263 17.0 33.0 0.00 0.04 0.04 94 1008.5
20220117101244 39 292 23.0 33.0 0.00 0.04 0.04 93 1008.4
20220117101135 39 299 12.0 33.0 0.00 0.04 0.04 87 1008.4
20220117101029 39 274 19.0 33.0 0.00 0.04 0.04 86 1008.5
20220117100924 39 296 15.0 33.0 0.00 0.04 0.04 87 1008.5
20220117100825 39 346 15.0 33.0 0.00 0.04 0.04 86 1008.7
20220117100819 39 292 16.0 33.0 0.00 0.04 0.04 86 1008.7
20220117100702 39 282 15.0 34.0 0.00 0.04 0.04 86 1008.8
20220117100558 39 274 26.0 34.0 0.00 0.04 0.04 85 1008.5
20220117100449 39 276 18.0 34.0 0.00 0.04 0.04 85 1008.3
20220117100343 39 268 22.0 34.0 0.00 0.04 0.04 85 1008.5
20220117100317 39 307 16.0 34.0 0.00 0.04 0.04 85 1008.5
20220117100237 39 288 27.0 34.0 0.00 0.04 0.04 85 1008.6
20220117100131 39 288 17.0 34.0 0.00 0.04 0.04 85 1008.3
20220117100026 39 282 14.0 34.0 0.00 0.04 0.04 85 1008.6
20220117095918 39 294 16.0 34.0 0.00 0.04 0.04 85 1008.6
20220117095812 39 280 25.0 34.0 0.00 0.04 0.04 85 1008.3
20220117095656 39 283 19.0 33.0 0.00 0.04 0.04 86 1008.7
20220117095550 39 265 16.0 33.0 0.00 0.04 0.04 86 1008.8
20220117095444 39 303 21.0 33.0 0.00 0.04 0.04 86 1008.5
20220117095337 39 275 25.0 33.0 0.00 0.04 0.04 86 1008.5
20220117095259 39 263 20.0 33.0 0.00 0.04 0.04 86 1008.8
20220117095220 39 235 11.0 33.0 0.00 0.04 0.04 86 1009.2
20220117095115 38 321 25.0 33.0 0.00 0.04 0.04 87 1008.8
20220117095009 38 204 26.0 33.0 0.00 0.04 0.04 87 1008.7
20220117094904 38 262 15.0 33.0 0.00 0.04 0.04 87 1009.0
20220117094755 38 288 23.0 33.0 0.00 0.04 0.04 87 1008.7
20220117094651 38 281 13.0 33.0 0.00 0.04 0.04 88 1008.7
20220117094544 38 260 13.0 33.0 0.00 0.04 0.04 88 1009.1
20220117094437 38 257 8.0 33.0 0.00 0.04 0.04 88 1009.1
20220117094334 38 309 17.0 33.0 0.00 0.04 0.04 88 1008.8
20220117094244 38 309 17.0 33.0 0.00 0.04 0.04 89 1008.8
20220117094227 38 309 17.0 33.0 0.00 0.04 0.04 89 1009.0
20220117094121 38 273 18.0 29.0 0.00 0.04 0.04 89 1009.3
20220117094015 38 354 9.0 31.0 0.00 0.04 0.04 89 1009.1
20220117093911 38 293 11.0 31.0 0.00 0.04 0.04 89 1009.3
20220117093803 38 293 17.0 31.0 0.00 0.04 0.04 89 1009.4
20220117093735 38 255 10.0 31.0 0.00 0.04 0.04 89 1009.5
20220117093658 38 299 8.0 31.0 0.00 0.04 0.04 89 1009.5
20220117093552 38 288 23.0 31.0 0.00 0.04 0.04 90 1009.2
20220117093445 38 280 16.0 31.0 0.00 0.04 0.04 90 1009.6
20220117093338 38 273 13.0 31.0 0.00 0.04 0.04 90 1009.5
20220117093233 37 247 16.0 31.0 0.00 0.04 0.04 90 1009.6
20220117093126 37 254 22.0 31.0 0.00 0.04 0.04 90 1009.5
20220117093020 37 283 16.0 29.0 0.00 0.04 0.04 90 1009.4
20220117092913 37 251 19.0 29.0 0.00 0.04 0.04 91 1009.5
20220117092807 37 287 17.0 29.0 0.00 0.04 0.04 91 1009.7
20220117092709 37 105 13.0 29.0 0.00 0.04 0.04 91 1009.6
20220117092702 37 105 13.0 29.0 0.00 0.04 0.04 91 1009.6
20220117092557 37 252 15.0 31.0 0.00 0.04 0.04 90 1009.6
20220117092450 37 234 20.0 31.0 0.00 0.04 0.04 90 1009.7
20220117092345 37 264 15.0 31.0 0.00 0.04 0.04 90 1009.7
20220117092237 37 297 22.0 31.0 0.00 0.04 0.04 90 1009.8
20220117092201 37 311 14.0 31.0 0.00 0.04 0.04 90 1009.8
20220117092131 37 311 14.0 31.0 0.00 0.04 0.04 90 1009.7
20220117092030 37 288 18.0 31.0 0.00 0.04 0.04 90 1009.4
20220117091920 37 294 15.0 31.0 0.00 0.04 0.04 91 1009.7
20220117091813 37 337 11.0 31.0 0.00 0.04 0.04 91 1009.8
20220117091706 37 259 13.0 31.0 0.00 0.04 0.04 91 1009.6
20220117091652 37 259 13.0 31.0 0.00 0.04 0.04 91 1009.6
20220117091603 37 254 12.0 27.0 0.00 0.04 0.04 91 1009.6
20220117091446 37 264 7.0 27.0 0.00 0.04 0.04 91 1009.4
20220117091341 37 279 14.0 27.0 0.00 0.04 0.04 91 1009.6
20220117091233 37 263 19.0 27.0 0.00 0.04 0.04 91 1009.4
20220117091136 37 214 11.0 27.0 0.00 0.04 0.04 91 1009.4
20220117091129 37 268 14.0 27.0 0.00 0.04 0.04 91 1009.5
20220117091025 37 271 13.0 27.0 0.00 0.04 0.04 91 1009.2
20220117090916 37 249 18.0 27.0 0.00 0.04 0.04 91 1009.5
20220117090809 37 274 9.0 27.0 0.00 0.04 0.04 91 1009.6
20220117090705 37 283 15.0 27.0 0.00 0.04 0.04 91 1010.0
20220117090625 37 281 19.0 27.0 0.00 0.04 0.04 91 1009.8
20220117090558 37 315 14.0 25.0 0.00 0.04 0.04 91 1009.8
20220117090453 37 303 12.0 25.0 0.00 0.04 0.04 91 1009.8
20220117090344 37 309 8.0 30.0 0.00 0.04 0.04 91 1009.9
20220117090240 37 269 14.0 30.0 0.00 0.04 0.04 91 1009.8
20220117090132 37 288 17.0 30.0 0.00 0.04 0.04 90 1009.8
20220117090118 37 348 12.0 30.0 0.00 0.04 0.04 90 1009.8
20220117090029 37 263 18.0 30.0 0.00 0.04 0.04 91 1009.9
20220117085922 37 283 23.0 30.0 0.00 0.04 0.04 91 1009.9
20220117085815 37 254 6.0 30.0 0.00 0.04 0.04 90 1010.1
20220117085712 37 9 5.0 31.0 0.00 0.04 0.04 90 1009.9
20220117085603 37 271 13.0 31.0 0.00 0.04 0.04 90 1009.8
20220117085458 37 277 24.0 31.0 0.00 0.04 0.04 89 1009.7
20220117085353 38 296 17.0 31.0 0.00 0.04 0.04 89 1010.1
20220117085245 38 260 14.0 31.0 0.00 0.04 0.04 89 1009.9
20220117085140 38 259 17.0 31.0 0.00 0.04 0.04 89 1009.9
20220117085051 38 279 21.0 31.0 0.00 0.04 0.04 89 1010.0
20220117085033 38 289 13.0 31.0 0.00 0.04 0.04 89 1010.1
20220117084930 38 23 12.0 31.0 0.00 0.04 0.04 88 1009.9
20220117084821 38 273 22.0 31.0 0.00 0.04 0.04 88 1009.8
20220117084716 38 246 15.0 31.0 0.00 0.04 0.04 88 1010.1
20220117084609 38 309 17.0 31.0 0.00 0.04 0.04 88 1010.1
20220117084542 38 309 17.0 31.0 0.00 0.04 0.04 88 1010.1
20220117084504 38 318 17.0 31.0 0.00 0.04 0.04 88 1010.2
20220117084359 38 308 17.0 26.0 0.01 0.04 0.04 88 1010.4
20220117084251 38 358 16.0 26.0 0.01 0.04 0.04 88 1010.2
20220117084149 38 283 16.0 26.0 0.01 0.04 0.04 88 1010.1
20220117084040 38 265 20.0 26.0 0.01 0.04 0.04 88 1010.1
20220117083935 38 270 17.0 25.0 0.01 0.04 0.04 87 1010.6
20220117083826 38 289 14.0 25.0 0.01 0.04 0.04 87 1010.0
20220117083711 38 259 15.0 25.0 0.01 0.04 0.04 88 1010.8
20220117083606 38 266 12.0 25.0 0.01 0.04 0.04 88 1010.9
20220117083526 38 266 12.0 25.0 0.01 0.04 0.04 88 1010.9
20220117083502 38 279 7.0 25.0 0.01 0.04 0.04 88 1010.9
20220117083353 38 274 13.0 25.0 0.01 0.04 0.04 88 1010.8
20220117083247 38 273 12.0 30.0 0.01 0.04 0.04 88 1010.9
20220117083141 38 311 9.0 30.0 0.01 0.04 0.04 88 1010.7
20220117083036 38 298 12.0 30.0 0.01 0.04 0.04 87 1010.9
20220117083017 38 306 18.0 30.0 0.01 0.04 0.04 87 1010.9
20220117082929 38 250 13.0 30.0 0.01 0.04 0.04 87 1010.2
20220117082822 38 251 8.0 30.0 0.01 0.04 0.04 87 1010.6
20220117082707 38 294 18.0 30.0 0.01 0.04 0.04 87 1009.9
20220117082558 38 244 15.0 30.0 0.01 0.04 0.04 87 1010.6
20220117082510 38 225 12.0 30.0 0.01 0.04 0.04 87 1010.6
20220117082454 38 225 12.0 30.0 0.01 0.04 0.04 87 1010.6
20220117082348 38 233 12.0 30.0 0.01 0.04 0.04 88 1010.2
20220117082241 38 270 10.0 30.0 0.01 0.04 0.04 88 1010.6
20220117082136 38 278 9.0 30.0 0.01 0.04 0.04 88 1010.5
20220117082031 38 277 17.0 30.0 0.01 0.04 0.04 88 1010.5
20220117082003 38 277 17.0 30.0 0.01 0.04 0.04 88 1010.5
20220117081925 37 284 15.0 30.0 0.01 0.04 0.04 88 1010.2
20220117081818 37 280 21.0 31.0 0.01 0.04 0.04 88 1010.2
20220117081711 37 241 17.0 31.0 0.01 0.04 0.04 88 1010.7
20220117081606 37 295 12.0 31.0 0.01 0.04 0.04 88 1010.6
20220117081459 37 280 17.0 31.0 0.01 0.04 0.04 88 1010.8
20220117081354 38 298 8.0 31.0 0.01 0.04 0.04 88 1010.9
20220117081247 38 301 8.0 31.0 0.01 0.04 0.04 88 1010.7
20220117081142 38 282 15.0 31.0 0.01 0.04 0.04 87 1011.0
20220117081035 38 318 18.0 31.0 0.01 0.04 0.04 87 1011.2
20220117080945 38 29 6.0 31.0 0.01 0.04 0.04 87 1011.2
20220117080928 38 29 6.0 31.0 0.01 0.04 0.04 87 1011.0
20220117080813 38 261 21.0 31.0 0.01 0.04 0.04 87 1010.7
20220117080706 38 280 23.0 29.0 0.01 0.04 0.04 87 1010.9
20220117080559 38 8 13.0 29.0 0.01 0.04 0.04 87 1011.3
20220117080455 38 289 19.0 27.0 0.01 0.04 0.04 87 1011.2
20220117080437 38 289 19.0 27.0 0.01 0.04 0.04 87 1011.3
20220117080347 38 259 11.0 27.0 0.01 0.04 0.04 87 1011.3
20220117080243 38 262 16.0 25.0 0.01 0.04 0.04 86 1011.3
20220117080136 38 311 18.0 25.0 0.01 0.04 0.04 86 1011.3
20220117080039 38 268 17.0 25.0 0.01 0.04 0.04 87 1011.3
20220117075932 38 310 13.0 25.0 0.01 0.04 0.04 86 1011.6
20220117075925 38 270 15.0 25.0 0.01 0.04 0.04 86 1011.6
20220117075817 38 302 13.0 26.0 0.01 0.04 0.04 86 1011.7
20220117075713 38 288 10.0 26.0 0.01 0.04 0.04 86 1011.4
20220117075606 38 288 8.0 26.0 0.01 0.04 0.04 86 1011.6
20220117075500 38 278 15.0 26.0 0.01 0.04 0.04 86 1011.6
20220117075422 38 234 16.0 26.0 0.01 0.04 0.04 86 1011.6
20220117075354 38 265 21.0 26.0 0.01 0.04 0.04 86 1011.6
20220117075249 38 294 16.0 26.0 0.01 0.04 0.04 86 1011.7
20220117075143 38 252 12.0 26.0 0.01 0.04 0.04 86 1011.7
20220117075036 38 264 17.0 26.0 0.01 0.04 0.04 86 1011.6
20220117074912 38 271 21.0 26.0 0.01 0.04 0.04 86 1011.6
20220117074823 38 286 10.0 26.0 0.01 0.04 0.04 86 1011.6
20220117074708 38 324 11.0 32.0 0.01 0.04 0.04 86 1011.7
20220117074605 38 316 9.0 32.0 0.01 0.04 0.04 86 1011.8
20220117074454 38 228 18.0 32.0 0.01 0.04 0.04 86 1011.9
20220117074404 38 228 18.0 32.0 0.01 0.04 0.04 86 1011.7
20220117074348 38 228 20.0 32.0 0.00 0.03 0.04 86 1011.7
20220117074242 38 263 19.0 32.0 0.00 0.03 0.03 87 1011.7
20220117074137 38 54 7.0 32.0 0.00 0.03 0.03 87 1011.7
20220117074021 38 132 12.0 32.0 0.00 0.03 0.03 86 1011.8
20220117073914 37 246 21.0 32.0 0.00 0.03 0.03 86 1011.8
20220117073857 37 246 21.0 32.0 0.00 0.03 0.03 87 1011.8
20220117073809 37 252 14.0 24.0 0.00 0.03 0.03 87 1011.6
20220117073701 37 261 19.0 24.0 0.00 0.03 0.03 87 1012.1
20220117073556 37 265 15.0 24.0 0.00 0.03 0.03 87 1012.1
20220117073449 37 280 18.0 24.0 0.00 0.03 0.03 87 1012.4
20220117073344 37 296 10.0 21.0 0.00 0.03 0.03 88 1012.6
20220117073238 37 258 9.0 21.0 0.00 0.03 0.03 88 1012.6
20220117073133 37 268 14.0 24.0 0.00 0.03 0.03 88 1012.7
20220117073027 37 22 12.0 25.0 0.00 0.03 0.03 88 1012.7
20220117072920 37 296 10.0 25.0 0.00 0.03 0.03 88 1012.7
20220117072840 37 314 9.0 25.0 0.00 0.03 0.03 88 1012.7
20220117072813 37 275 12.0 25.0 0.00 0.03 0.03 88 1012.8
20220117072709 37 312 8.0 25.0 0.00 0.03 0.03 88 1012.8
20220117072602 37 279 10.0 25.0 0.00 0.03 0.03 88 1012.6
20220117072455 37 280 12.0 25.0 0.00 0.03 0.03 88 1012.5
20220117072348 37 234 15.0 25.0 0.00 0.03 0.03 88 1012.3
20220117072335 37 216 6.0 25.0 0.00 0.03 0.03 88 1012.3
20220117072245 37 252 12.0 25.0 0.00 0.03 0.03 88 1012.7
20220117072137 37 281 17.0 25.0 0.00 0.03 0.03 89 1012.7
20220117072033 37 251 17.0 24.0 0.00 0.03 0.03 89 1012.5
20220117071926 37 348 12.0 24.0 0.00 0.03 0.03 89 1012.7
20220117071822 37 277 15.0 24.0 0.00 0.03 0.03 89 1012.2
20220117071715 37 272 14.0 24.0 0.00 0.03 0.03 89 1012.0
20220117071609 37 253 17.0 24.0 0.00 0.03 0.03 90 1012.2
20220117071502 37 277 15.0 24.0 0.00 0.03 0.03 90 1012.2
20220117071355 37 290 9.0 24.0 0.00 0.03 0.03 90 1012.1
20220117071305 37 12 14.0 24.0 0.00 0.03 0.03 90 1012.1
20220117071248 37 267 14.0 24.0 0.00 0.03 0.03 90 1012.1
20220117071142 37 289 15.0 24.0 0.00 0.03 0.03 90 1012.2
20220117071037 37 281 20.0 24.0 0.00 0.03 0.03 90 1012.1
20220117070932 37 273 12.0 24.0 0.00 0.03 0.03 91 1012.0
20220117070825 36 253 17.0 25.0 0.00 0.03 0.03 91 1012.2
20220117070759 36 345 8.0 25.0 0.00 0.03 0.03 91 1012.2
20220117070719 36 231 14.0 25.0 0.00 0.03 0.03 91 1012.1
20220117070614 36 242 9.0 25.0 0.00 0.03 0.03 91 1012.1
20220117070508 36 289 9.0 25.0 0.00 0.03 0.03 91 1012.1
20220117070402 36 309 9.0 25.0 0.00 0.03 0.03 91 1012.2
20220117070256 36 347 14.0 25.0 0.00 0.03 0.03 91 1012.2
20220117070149 37 277 15.0 25.0 0.00 0.03 0.03 91 1012.0